Time,TemperatureF,DewpointF,PressureIn,WindDirection,WindDirectionDegrees,WindSpeedMPH,WindSpeedGustMPH,Humidity,HourlyPrecipIn,Conditions,Clouds,dailyrainin,SoftwareType,DateUTC
2013-02-27 00:01:00,35.5,33.1,29.82,SSW,202,5.0,5.0,91,0.00,,,0.02,Wunderground v.1.15,2013-02-27 05:01:00,
2013-02-27 00:09:00,35.7,33.1,29.82,SSW,196,5.0,7.0,90,0.00,,,0.02,Wunderground v.1.15,2013-02-27 05:09:00,
2013-02-27 00:11:00,35.9,33.3,29.82,WSW,257,4.0,4.0,90,0.00,,,0.02,Wunderground v.1.15,2013-02-27 05:11:00,
2013-02-27 00:16:00,36.1,33.5,29.81,West,259,4.0,8.0,90,0.00,,,0.02,Wunderground v.1.15,2013-02-27 05:16:00,
2013-02-27 00:17:00,36.1,33.2,29.81,SW,219,4.0,8.0,89,0.00,,,0.02,Wunderground v.1.15,2013-02-27 05:17:00,
2013-02-27 00:18:00,36.1,33.2,29.81,SW,230,4.0,8.0,89,0.00,,,0.02,Wunderground v.1.15,2013-02-27 05:18:00,
2013-02-27 00:21:00,36.2,33.3,29.81,WSW,250,5.0,5.0,89,0.00,,,0.02,Wunderground v.1.15,2013-02-27 05:21:00,
2013-02-27 00:28:00,36.6,33.4,29.81,West,275,5.0,10.0,88,0.00,,,0.02,Wunderground v.1.15,2013-02-27 05:28:00,
2013-02-27 00:38:00,37.5,34.3,29.81,SW,220,4.0,8.0,88,0.00,,,0.02,Wunderground v.1.15,2013-02-27 05:38:00,
2013-02-27 00:42:00,37.5,33.7,29.81,West,261,5.0,6.0,86,0.00,,,0.02,Wunderground v.1.15,2013-02-27 05:42:00,
2013-02-27 00:52:00,37.2,33.4,29.81,SW,229,5.0,6.0,86,0.00,,,0.02,Wunderground v.1.15,2013-02-27 05:52:00,
2013-02-27 00:54:00,37.1,33.3,29.81,SW,227,5.0,6.0,86,0.00,,,0.02,Wunderground v.1.15,2013-02-27 05:54:00,
2013-02-27 00:55:00,37.1,33.3,29.81,SW,227,4.0,6.0,86,0.00,,,0.02,Wunderground v.1.15,2013-02-27 05:55:00,
2013-02-27 01:06:00,37.1,33.0,29.80,West,261,5.0,10.0,85,0.00,,,0.02,Wunderground v.1.15,2013-02-27 06:06:00,
2013-02-27 01:09:00,37.2,32.8,29.80,WSW,257,5.0,10.0,84,0.00,,,0.02,Wunderground v.1.15,2013-02-27 06:09:00,
2013-02-27 01:11:00,37.3,32.9,29.81,WSW,243,5.0,5.0,84,0.00,,,0.02,Wunderground v.1.15,2013-02-27 06:11:00,
2013-02-27 01:13:00,37.4,32.7,29.81,WSW,255,5.0,6.0,83,0.00,,,0.02,Wunderground v.1.15,2013-02-27 06:13:00,
2013-02-27 01:14:00,37.5,32.8,29.81,WNW,298,5.0,6.0,83,0.00,,,0.02,Wunderground v.1.15,2013-02-27 06:14:00,
2013-02-27 01:15:00,37.5,32.8,29.80,WSW,243,5.0,7.0,83,0.00,,,0.02,Wunderground v.1.15,2013-02-27 06:15:00,
2013-02-27 01:17:00,37.5,32.2,29.80,West,265,6.0,13.0,81,0.00,,,0.02,Wunderground v.1.15,2013-02-27 06:17:00,
2013-02-27 01:23:00,38.9,36.5,29.65,SW,229,3.0,5.0,91,0.00,,,0.00,Wunderground v.1.15,2013-02-27 06:23:00,
2013-02-27 01:25:00,38.9,36.5,29.66,SW,216,4.0,5.0,91,0.00,,,0.00,Wunderground v.1.15,2013-02-27 06:25:00,
2013-02-27 01:31:00,39.0,36.3,29.66,SW,215,4.0,7.0,90,0.00,,,0.00,Wunderground v.1.15,2013-02-27 06:31:00,
2013-02-27 01:33:00,39.1,36.4,29.66,WSW,250,4.0,7.0,90,0.00,,,0.00,Wunderground v.1.15,2013-02-27 06:33:00,
2013-02-27 01:35:00,39.1,36.4,29.66,WSW,241,4.0,7.0,90,0.00,,,0.00,Wunderground v.1.15,2013-02-27 06:35:00,
2013-02-27 01:38:00,39.2,36.5,29.66,SW,220,5.0,6.0,90,0.00,,,0.00,Wunderground v.1.15,2013-02-27 06:38:00,
2013-02-27 01:39:00,39.2,36.5,29.66,WSW,248,5.0,6.0,90,0.00,,,0.00,Wunderground v.1.15,2013-02-27 06:39:00,
2013-02-27 01:42:00,39.2,36.5,29.67,SW,236,5.0,6.0,90,0.00,,,0.00,Wunderground v.1.15,2013-02-27 06:42:00,
2013-02-27 01:44:00,38.0,33.3,29.80,WSW,252,6.0,10.0,83,0.00,,,0.02,Wunderground v.1.15,2013-02-27 06:44:00,
2013-02-27 01:45:00,39.2,36.5,29.67,SSW,192,5.0,7.0,90,0.00,,,0.00,Wunderground v.1.15,2013-02-27 06:45:00,
2013-02-27 01:47:00,39.2,36.5,29.67,West,264,5.0,12.0,90,0.00,,,0.00,Wunderground v.1.15,2013-02-27 06:47:00,
2013-02-27 01:48:00,39.2,36.2,29.67,South,178,5.0,12.0,89,0.00,,,0.00,Wunderground v.1.15,2013-02-27 06:48:00,
2013-02-27 01:50:00,39.2,36.2,29.67,SSW,205,5.0,12.0,89,0.00,,,0.00,Wunderground v.1.15,2013-02-27 06:50:00,
2013-02-27 01:53:00,39.2,36.2,29.67,WSW,252,6.0,12.0,89,0.00,,,0.00,Wunderground v.1.15,2013-02-27 06:53:00,
2013-02-27 01:54:00,37.7,31.8,29.80,SW,235,6.0,6.0,79,0.00,,,0.02,Wunderground v.1.15,2013-02-27 06:54:00,
2013-02-27 01:55:00,37.7,31.8,29.80,WSW,258,5.0,8.0,79,0.00,,,0.02,Wunderground v.1.15,2013-02-27 06:55:00,
2013-02-27 01:56:00,39.3,36.3,29.67,SSW,208,6.0,12.0,89,0.00,,,0.00,Wunderground v.1.15,2013-02-27 06:56:00,
2013-02-27 01:57:00,39.3,36.3,29.67,WSW,249,6.0,6.0,89,0.00,,,0.00,Wunderground v.1.15,2013-02-27 06:57:00,
2013-02-27 02:00:00,39.3,36.3,29.67,West,259,5.0,14.0,89,0.00,,,0.00,Wunderground v.1.15,2013-02-27 07:00:00,
2013-02-27 02:02:00,39.3,36.3,29.67,West,267,6.0,14.0,89,0.00,,,0.00,Wunderground v.1.15,2013-02-27 07:02:00,
2013-02-27 02:03:00,39.3,36.3,29.66,WSW,244,6.0,14.0,89,0.00,,,0.00,Wunderground v.1.15,2013-02-27 07:03:00,
2013-02-27 02:04:00,37.9,32.3,29.80,WSW,248,5.0,7.0,80,0.00,,,0.02,Wunderground v.1.15,2013-02-27 07:04:00,
2013-02-27 02:05:00,38.0,32.4,29.80,West,259,5.0,7.0,80,0.00,,,0.02,Wunderground v.1.15,2013-02-27 07:05:00,
2013-02-27 02:06:00,39.2,36.2,29.67,SSW,196,5.0,14.0,89,0.00,,,0.00,Wunderground v.1.15,2013-02-27 07:06:00,
2013-02-27 02:08:00,39.1,36.4,29.67,South,171,5.0,9.0,90,0.00,,,0.00,Wunderground v.1.15,2013-02-27 07:08:00,
2013-02-27 02:10:00,39.1,36.4,29.67,SW,234,5.0,9.0,90,0.00,,,0.00,Wunderground v.1.15,2013-02-27 07:10:00,
2013-02-27 02:11:00,39.1,36.4,29.67,WSW,244,5.0,10.0,90,0.00,,,0.00,Wunderground v.1.15,2013-02-27 07:11:00,
2013-02-27 02:14:00,39.0,36.3,29.67,SW,221,5.0,10.0,90,0.00,,,0.00,Wunderground v.1.15,2013-02-27 07:14:00,
2013-02-27 02:17:00,38.9,36.2,29.67,SW,234,5.0,5.0,90,0.00,,,0.00,Wunderground v.1.15,2013-02-27 07:17:00,
2013-02-27 02:18:00,38.8,36.1,29.68,SW,225,6.0,11.0,90,0.00,,,0.00,Wunderground v.1.15,2013-02-27 07:18:00,
2013-02-27 02:19:00,38.8,36.1,29.68,SW,220,6.0,11.0,90,0.00,,,0.00,Wunderground v.1.15,2013-02-27 07:19:00,
2013-02-27 02:23:00,38.7,36.0,29.68,SW,227,5.0,11.0,90,0.00,,,0.00,Wunderground v.1.15,2013-02-27 07:23:00,
2013-02-27 02:24:00,38.3,31.4,29.80,West,266,6.0,9.0,76,0.00,,,0.02,Wunderground v.1.15,2013-02-27 07:24:00,
2013-02-27 02:25:00,38.6,36.2,29.68,SSW,192,5.0,11.0,91,0.00,,,0.00,Wunderground v.1.15,2013-02-27 07:25:00,
2013-02-27 02:27:00,38.6,36.2,29.68,WSW,237,5.0,5.0,91,0.00,,,0.00,Wunderground v.1.15,2013-02-27 07:27:00,
2013-02-27 02:28:00,38.1,30.5,29.80,West,260,7.0,11.0,74,0.00,,,0.02,Wunderground v.1.15,2013-02-27 07:28:00,
2013-02-27 02:32:00,38.5,36.1,29.68,WSW,253,5.0,9.0,91,0.00,,,0.00,Wunderground v.1.15,2013-02-27 07:32:00,
2013-02-27 02:33:00,38.5,36.1,29.68,SW,215,5.0,9.0,91,0.00,,,0.00,Wunderground v.1.15,2013-02-27 07:33:00,
2013-02-27 02:34:00,38.6,36.2,29.68,West,261,5.0,9.0,91,0.00,,,0.00,Wunderground v.1.15,2013-02-27 07:34:00,
2013-02-27 02:36:00,38.6,36.2,29.68,WSW,240,5.0,9.0,91,0.00,,,0.00,Wunderground v.1.15,2013-02-27 07:36:00,
2013-02-27 02:39:00,38.6,36.2,29.68,SW,215,4.0,5.0,91,0.00,,,0.00,Wunderground v.1.15,2013-02-27 07:39:00,
2013-02-27 02:40:00,38.1,30.5,29.80,West,269,7.0,8.0,74,0.00,,,0.02,Wunderground v.1.15,2013-02-27 07:40:00,
2013-02-27 02:41:00,38.6,36.2,29.68,WSW,251,5.0,10.0,91,0.00,,,0.00,Wunderground v.1.15,2013-02-27 07:41:00,
2013-02-27 02:42:00,38.6,36.2,29.68,WSW,243,5.0,10.0,91,0.00,,,0.00,Wunderground v.1.15,2013-02-27 07:42:00,
2013-02-27 02:43:00,38.6,36.2,29.68,West,261,5.0,11.0,91,0.00,,,0.00,Wunderground v.1.15,2013-02-27 07:43:00,
2013-02-27 02:45:00,38.2,31.0,29.80,WSW,244,7.0,10.0,75,0.00,,,0.02,Wunderground v.1.15,2013-02-27 07:45:00,
2013-02-27 02:47:00,38.7,36.0,29.68,SSW,194,5.0,5.0,90,0.00,,,0.00,Wunderground v.1.15,2013-02-27 07:47:00,
2013-02-27 02:48:00,38.7,36.3,29.68,WSW,248,5.0,6.0,91,0.00,,,0.00,Wunderground v.1.15,2013-02-27 07:48:00,
2013-02-27 02:52:00,38.7,36.3,29.68,West,262,5.0,7.0,91,0.00,,,0.00,Wunderground v.1.15,2013-02-27 07:52:00,
2013-02-27 02:53:00,38.7,36.0,29.68,SSW,208,6.0,7.0,90,0.00,,,0.00,Wunderground v.1.15,2013-02-27 07:53:00,
2013-02-27 02:54:00,38.7,36.0,29.68,West,277,5.0,7.0,90,0.00,,,0.00,Wunderground v.1.15,2013-02-27 07:54:00,
2013-02-27 02:57:00,38.7,36.0,29.68,SW,233,5.0,5.0,90,0.00,,,0.00,Wunderground v.1.15,2013-02-27 07:57:00,
2013-02-27 02:58:00,38.7,36.0,29.68,SSW,204,5.0,5.0,90,0.00,,,0.00,Wunderground v.1.15,2013-02-27 07:58:00,
2013-02-27 03:01:00,38.7,36.0,29.68,SW,223,5.0,7.0,90,0.00,,,0.00,Wunderground v.1.15,2013-02-27 08:01:00,
2013-02-27 03:02:00,38.7,36.0,29.68,WSW,242,5.0,10.0,90,0.00,,,0.00,Wunderground v.1.15,2013-02-27 08:02:00,
2013-02-27 03:03:00,38.2,30.3,29.81,WSW,254,6.0,9.0,73,0.00,,,0.02,Wunderground v.1.15,2013-02-27 08:03:00,
2013-02-27 03:06:00,38.8,35.8,29.68,WSW,257,6.0,10.0,89,0.00,,,0.00,Wunderground v.1.15,2013-02-27 08:06:00,
2013-02-27 03:08:00,38.8,35.8,29.68,WSW,258,5.0,8.0,89,0.00,,,0.00,Wunderground v.1.15,2013-02-27 08:08:00,
2013-02-27 03:11:00,38.8,35.8,29.68,SW,225,6.0,8.0,89,0.00,,,0.00,Wunderground v.1.15,2013-02-27 08:11:00,
2013-02-27 03:13:00,38.8,35.8,29.68,ESE,113,5.0,8.0,89,0.00,,,0.00,Wunderground v.1.15,2013-02-27 08:13:00,
2013-02-27 03:18:00,38.8,35.8,29.68,WSW,249,5.0,6.0,89,0.00,,,0.00,Wunderground v.1.15,2013-02-27 08:18:00,
2013-02-27 03:19:00,38.8,35.8,29.68,WSW,246,5.0,6.0,89,0.00,,,0.00,Wunderground v.1.15,2013-02-27 08:19:00,
2013-02-27 03:23:00,38.8,35.8,29.69,WNW,289,5.0,6.0,89,0.00,,,0.00,Wunderground v.1.15,2013-02-27 08:23:00,
2013-02-27 03:25:00,38.8,35.8,29.69,SW,236,5.0,6.0,89,0.00,,,0.00,Wunderground v.1.15,2013-02-27 08:25:00,
2013-02-27 03:26:00,38.8,35.8,29.69,West,263,4.0,6.0,89,0.00,,,0.00,Wunderground v.1.15,2013-02-27 08:26:00,
2013-02-27 03:28:00,38.8,35.8,29.69,WSW,247,5.0,5.0,89,0.00,,,0.00,Wunderground v.1.15,2013-02-27 08:28:00,
2013-02-27 03:32:00,38.7,35.7,29.69,WSW,242,5.0,5.0,89,0.00,,,0.00,Wunderground v.1.15,2013-02-27 08:32:00,
2013-02-27 03:33:00,38.7,35.7,29.69,SW,216,4.0,5.0,89,0.00,,,0.00,Wunderground v.1.15,2013-02-27 08:33:00,
2013-02-27 03:35:00,38.7,35.7,29.69,SSW,201,4.0,5.0,89,0.00,,,0.00,Wunderground v.1.15,2013-02-27 08:35:00,
2013-02-27 03:38:00,38.7,35.7,29.69,West,269,4.0,8.0,89,0.00,,,0.00,Wunderground v.1.15,2013-02-27 08:38:00,
2013-02-27 03:39:00,38.7,35.7,29.69,WSW,238,4.0,8.0,89,0.00,,,0.00,Wunderground v.1.15,2013-02-27 08:39:00,
2013-02-27 03:42:00,38.7,35.7,29.69,SW,217,5.0,10.0,89,0.00,,,0.00,Wunderground v.1.15,2013-02-27 08:42:00,
2013-02-27 03:43:00,38.7,35.7,29.69,West,279,5.0,10.0,89,0.00,,,0.00,Wunderground v.1.15,2013-02-27 08:43:00,
2013-02-27 03:46:00,38.7,35.7,29.69,SW,221,6.0,10.0,89,0.00,,,0.00,Wunderground v.1.15,2013-02-27 08:46:00,
2013-02-27 03:47:00,38.7,35.7,29.69,SW,230,6.0,6.0,89,0.00,,,0.00,Wunderground v.1.15,2013-02-27 08:47:00,
2013-02-27 03:49:00,38.7,35.5,29.69,WNW,285,6.0,7.0,88,0.00,,,0.00,Wunderground v.1.15,2013-02-27 08:49:00,
2013-02-27 03:54:00,38.6,35.6,29.69,SSW,194,5.0,7.0,89,0.00,,,0.00,Wunderground v.1.15,2013-02-27 08:54:00,
2013-02-27 03:56:00,38.6,35.6,29.69,WSW,240,5.0,7.0,89,0.00,,,0.00,Wunderground v.1.15,2013-02-27 08:56:00,
2013-02-27 03:57:00,38.6,35.6,29.69,SW,229,6.0,6.0,89,0.00,,,0.00,Wunderground v.1.15,2013-02-27 08:57:00,
2013-02-27 03:58:00,38.5,35.5,29.69,SW,218,6.0,6.0,89,0.00,,,0.00,Wunderground v.1.15,2013-02-27 08:58:00,
2013-02-27 04:00:00,38.5,35.5,29.70,SSW,209,5.0,6.0,89,0.00,,,0.00,Wunderground v.1.15,2013-02-27 09:00:00,
2013-02-27 04:02:00,38.5,35.5,29.69,WSW,241,5.0,6.0,89,0.00,,,0.00,Wunderground v.1.15,2013-02-27 09:02:00,
2013-02-27 04:03:00,38.5,35.5,29.69,SW,217,5.0,6.0,89,0.00,,,0.00,Wunderground v.1.15,2013-02-27 09:03:00,
2013-02-27 04:06:00,38.5,35.5,29.70,SW,224,5.0,10.0,89,0.00,,,0.00,Wunderground v.1.15,2013-02-27 09:06:00,
2013-02-27 04:09:00,38.4,35.4,29.70,SW,227,6.0,10.0,89,0.00,,,0.00,Wunderground v.1.15,2013-02-27 09:09:00,
2013-02-27 04:12:00,38.5,35.5,29.70,SW,226,6.0,10.0,89,0.00,,,0.00,Wunderground v.1.15,2013-02-27 09:12:00,
2013-02-27 04:14:00,38.5,35.5,29.70,SW,224,6.0,10.0,89,0.00,,,0.00,Wunderground v.1.15,2013-02-27 09:14:00,
2013-02-27 04:15:00,38.5,35.5,29.70,WSW,245,6.0,10.0,89,0.00,,,0.00,Wunderground v.1.15,2013-02-27 09:15:00,
2013-02-27 04:18:00,38.5,35.5,29.70,SW,214,6.0,6.0,89,0.00,,,0.00,Wunderground v.1.15,2013-02-27 09:18:00,
2013-02-27 04:20:00,38.5,35.5,29.70,WSW,241,6.0,8.0,89,0.00,,,0.00,Wunderground v.1.15,2013-02-27 09:20:00,
2013-02-27 04:23:00,38.5,35.5,29.70,South,176,5.0,8.0,89,0.00,,,0.00,Wunderground v.1.15,2013-02-27 09:23:00,
2013-02-27 04:25:00,38.4,35.4,29.70,SW,227,5.0,8.0,89,0.00,,,0.00,Wunderground v.1.15,2013-02-27 09:25:00,
2013-02-27 04:26:00,38.4,35.4,29.70,West,269,5.0,5.0,89,0.00,,,0.00,Wunderground v.1.15,2013-02-27 09:26:00,
2013-02-27 04:28:00,38.4,35.4,29.70,SW,215,5.0,5.0,89,0.00,,,0.00,Wunderground v.1.15,2013-02-27 09:28:00,
2013-02-27 04:30:00,38.4,35.4,29.71,WSW,251,5.0,5.0,89,0.00,,,0.00,Wunderground v.1.15,2013-02-27 09:30:00,
2013-02-27 04:33:00,38.4,35.4,29.71,West,273,5.0,9.0,89,0.00,,,0.00,Wunderground v.1.15,2013-02-27 09:33:00,
2013-02-27 04:35:00,38.4,35.4,29.70,SW,225,5.0,9.0,89,0.00,,,0.00,Wunderground v.1.15,2013-02-27 09:35:00,
2013-02-27 04:36:00,38.4,35.4,29.70,WSW,239,5.0,9.0,89,0.00,,,0.00,Wunderground v.1.15,2013-02-27 09:36:00,
2013-02-27 04:37:00,38.5,35.3,29.70,WSW,240,6.0,11.0,88,0.00,,,0.00,Wunderground v.1.15,2013-02-27 09:37:00,
2013-02-27 04:39:00,38.6,35.4,29.70,WSW,256,6.0,14.0,88,0.00,,,0.00,Wunderground v.1.15,2013-02-27 09:39:00,
2013-02-27 04:40:00,38.6,35.4,29.70,WSW,254,7.0,14.0,88,0.00,,,0.00,Wunderground v.1.15,2013-02-27 09:40:00,
2013-02-27 04:43:00,38.6,35.4,29.71,West,270,7.0,14.0,88,0.00,,,0.00,Wunderground v.1.15,2013-02-27 09:43:00,
2013-02-27 04:46:00,38.5,35.3,29.71,WSW,253,7.0,14.0,88,0.00,,,0.00,Wunderground v.1.15,2013-02-27 09:46:00,
2013-02-27 04:48:00,38.5,35.3,29.71,West,277,6.0,8.0,88,0.00,,,0.00,Wunderground v.1.15,2013-02-27 09:48:00,
2013-02-27 04:52:00,38.5,35.3,29.71,SW,226,6.0,8.0,88,0.00,,,0.00,Wunderground v.1.15,2013-02-27 09:52:00,
2013-02-27 04:53:00,38.5,35.3,29.71,WSW,246,6.0,8.0,88,0.00,,,0.00,Wunderground v.1.15,2013-02-27 09:53:00,
2013-02-27 04:55:00,38.4,35.2,29.71,West,264,6.0,8.0,88,0.00,,,0.00,Wunderground v.1.15,2013-02-27 09:55:00,
2013-02-27 04:59:00,38.4,35.2,29.71,SSW,192,5.0,6.0,88,0.00,,,0.00,Wunderground v.1.15,2013-02-27 09:59:00,
2013-02-27 05:01:00,38.4,35.4,29.71,West,259,5.0,6.0,89,0.00,,,0.00,Wunderground v.1.15,2013-02-27 10:01:00,
2013-02-27 05:02:00,38.3,35.1,29.71,WSW,247,5.0,6.0,88,0.00,,,0.00,Wunderground v.1.15,2013-02-27 10:02:00,
2013-02-27 05:05:00,38.3,35.3,29.71,SSW,208,5.0,9.0,89,0.00,,,0.00,Wunderground v.1.15,2013-02-27 10:05:00,
2013-02-27 05:09:00,38.4,35.2,29.71,SSW,211,5.0,6.0,88,0.00,,,0.00,Wunderground v.1.15,2013-02-27 10:09:00,
2013-02-27 05:10:00,38.4,35.2,29.71,West,271,5.0,7.0,88,0.00,,,0.00,Wunderground v.1.15,2013-02-27 10:10:00,
2013-02-27 05:12:00,38.4,35.2,29.71,West,267,5.0,7.0,88,0.00,,,0.00,Wunderground v.1.15,2013-02-27 10:12:00,
2013-02-27 05:13:00,38.4,35.2,29.71,WSW,245,5.0,7.0,88,0.00,,,0.00,Wunderground v.1.15,2013-02-27 10:13:00,
2013-02-27 05:15:00,38.3,35.1,29.71,West,275,5.0,7.0,88,0.00,,,0.00,Wunderground v.1.15,2013-02-27 10:15:00,
2013-02-27 05:17:00,38.3,35.3,29.71,WNW,302,5.0,5.0,89,0.00,,,0.00,Wunderground v.1.15,2013-02-27 10:17:00,
2013-02-27 05:20:00,38.3,35.1,29.70,WSW,246,5.0,5.0,88,0.00,,,0.00,Wunderground v.1.15,2013-02-27 10:20:00,
2013-02-27 05:21:00,38.3,35.1,29.71,WSW,254,5.0,5.0,88,0.00,,,0.00,Wunderground v.1.15,2013-02-27 10:21:00,
2013-02-27 05:24:00,38.2,35.2,29.71,SW,223,6.0,8.0,89,0.00,,,0.00,Wunderground v.1.15,2013-02-27 10:24:00,
2013-02-27 05:27:00,38.2,35.2,29.71,WSW,254,6.0,6.0,89,0.00,,,0.00,Wunderground v.1.15,2013-02-27 10:27:00,
2013-02-27 05:33:00,38.0,35.0,29.72,SSW,209,6.0,7.0,89,0.00,,,0.00,Wunderground v.1.15,2013-02-27 10:33:00,
2013-02-27 05:35:00,38.0,35.0,29.72,West,263,5.0,7.0,89,0.00,,,0.00,Wunderground v.1.15,2013-02-27 10:35:00,
2013-02-27 05:37:00,38.0,35.0,29.72,WSW,243,5.0,10.0,89,0.00,,,0.00,Wunderground v.1.15,2013-02-27 10:37:00,
2013-02-27 05:42:00,37.9,34.7,29.72,WNW,302,6.0,15.0,88,0.00,,,0.00,Wunderground v.1.15,2013-02-27 10:42:00,
2013-02-27 05:43:00,37.9,34.7,29.72,WSW,255,6.0,15.0,88,0.00,,,0.00,Wunderground v.1.15,2013-02-27 10:43:00,
2013-02-27 05:47:00,37.8,34.3,29.72,West,272,6.0,8.0,87,0.00,,,0.00,Wunderground v.1.15,2013-02-27 10:47:00,
2013-02-27 05:48:00,37.8,34.3,29.72,SSW,211,6.0,8.0,87,0.00,,,0.00,Wunderground v.1.15,2013-02-27 10:48:00,
2013-02-27 05:49:00,37.8,34.0,29.73,NW,304,6.0,10.0,86,0.00,,,0.00,Wunderground v.1.15,2013-02-27 10:49:00,
2013-02-27 05:50:00,37.8,34.0,29.73,WNW,288,6.0,10.0,86,0.00,,,0.00,Wunderground v.1.15,2013-02-27 10:50:00,
2013-02-27 05:54:00,37.8,34.0,29.73,West,267,7.0,10.0,86,0.00,,,0.00,Wunderground v.1.15,2013-02-27 10:54:00,
2013-02-27 05:56:00,37.7,33.9,29.73,West,276,6.0,10.0,86,0.00,,,0.00,Wunderground v.1.15,2013-02-27 10:56:00,
2013-02-27 05:57:00,37.7,33.9,29.73,WSW,250,6.0,6.0,86,0.00,,,0.00,Wunderground v.1.15,2013-02-27 10:57:00,
2013-02-27 06:00:00,37.7,33.6,29.73,WSW,240,6.0,11.0,85,0.00,,,0.00,Wunderground v.1.15,2013-02-27 11:00:00,
2013-02-27 06:01:00,37.7,33.6,29.73,West,279,5.0,11.0,85,0.00,,,0.00,Wunderground v.1.15,2013-02-27 11:01:00,
2013-02-27 06:03:00,37.7,33.9,29.73,WSW,252,5.0,11.0,86,0.00,,,0.00,Wunderground v.1.15,2013-02-27 11:03:00,
2013-02-27 06:06:00,37.5,33.7,29.73,WSW,249,5.0,11.0,86,0.00,,,0.00,Wunderground v.1.15,2013-02-27 11:06:00,
2013-02-27 06:07:00,37.5,33.4,29.74,West,279,5.0,6.0,85,0.00,,,0.00,Wunderground v.1.15,2013-02-27 11:07:00,
2013-02-27 06:08:00,37.5,33.4,29.74,SW,233,5.0,8.0,85,0.00,,,0.00,Wunderground v.1.15,2013-02-27 11:08:00,
2013-02-27 06:09:00,37.5,33.4,29.74,West,261,5.0,8.0,85,0.00,,,0.00,Wunderground v.1.15,2013-02-27 11:09:00,
2013-02-27 06:11:00,37.5,33.7,29.74,West,261,5.0,8.0,86,0.00,,,0.00,Wunderground v.1.15,2013-02-27 11:11:00,
2013-02-27 06:14:00,37.5,33.4,29.74,WSW,244,5.0,8.0,85,0.00,,,0.00,Wunderground v.1.15,2013-02-27 11:14:00,
2013-02-27 06:16:00,37.5,33.4,29.74,WSW,250,5.0,8.0,85,0.00,,,0.00,Wunderground v.1.15,2013-02-27 11:16:00,
2013-02-27 06:19:00,37.5,33.4,29.74,West,262,6.0,7.0,85,0.00,,,0.00,Wunderground v.1.15,2013-02-27 11:19:00,
2013-02-27 06:21:00,37.5,33.4,29.74,West,276,6.0,8.0,85,0.00,,,0.00,Wunderground v.1.15,2013-02-27 11:21:00,
2013-02-27 06:22:00,37.5,33.4,29.74,West,267,5.0,8.0,85,0.00,,,0.00,Wunderground v.1.15,2013-02-27 11:22:00,
2013-02-27 06:23:00,37.5,33.7,29.75,WSW,239,5.0,8.0,86,0.00,,,0.00,Wunderground v.1.15,2013-02-27 11:23:00,
2013-02-27 06:25:00,37.5,33.7,29.75,SW,229,5.0,8.0,86,0.00,,,0.00,Wunderground v.1.15,2013-02-27 11:25:00,
2013-02-27 06:29:00,37.4,33.6,29.75,West,269,5.0,7.0,86,0.00,,,0.00,Wunderground v.1.15,2013-02-27 11:29:00,
2013-02-27 06:30:00,37.4,33.6,29.75,SW,220,5.0,7.0,86,0.00,,,0.00,Wunderground v.1.15,2013-02-27 11:30:00,
2013-02-27 06:34:00,37.4,33.6,29.75,West,273,6.0,8.0,86,0.00,,,0.00,Wunderground v.1.15,2013-02-27 11:34:00,
2013-02-27 06:35:00,37.4,33.6,29.75,WSW,246,6.0,8.0,86,0.00,,,0.00,Wunderground v.1.15,2013-02-27 11:35:00,
2013-02-27 06:36:00,37.3,33.5,29.75,NW,306,6.0,8.0,86,0.00,,,0.00,Wunderground v.1.15,2013-02-27 11:36:00,
2013-02-27 06:38:00,37.3,33.8,29.75,WSW,242,6.0,7.0,87,0.00,,,0.00,Wunderground v.1.15,2013-02-27 11:38:00,
2013-02-27 06:41:00,37.1,33.6,29.75,WSW,239,6.0,7.0,87,0.00,,,0.00,Wunderground v.1.15,2013-02-27 11:41:00,
2013-02-27 06:43:00,37.1,33.6,29.75,West,261,6.0,7.0,87,0.00,,,0.00,Wunderground v.1.15,2013-02-27 11:43:00,
2013-02-27 06:44:00,37.0,33.8,29.75,West,266,6.0,7.0,88,0.00,,,0.00,Wunderground v.1.15,2013-02-27 11:44:00,
2013-02-27 06:49:00,36.8,33.9,29.75,WSW,257,6.0,10.0,89,0.00,,,0.00,Wunderground v.1.15,2013-02-27 11:49:00,
2013-02-27 06:50:00,36.8,33.9,29.76,West,268,6.0,10.0,89,0.00,,,0.00,Wunderground v.1.15,2013-02-27 11:50:00,
2013-02-27 06:51:00,36.8,33.9,29.76,West,268,6.0,10.0,89,0.00,,,0.00,Wunderground v.1.15,2013-02-27 11:51:00,
2013-02-27 06:55:00,36.6,33.7,29.76,West,277,6.0,10.0,89,0.00,,,0.00,Wunderground v.1.15,2013-02-27 11:55:00,
2013-02-27 06:57:00,36.5,33.8,29.76,WNW,292,4.0,4.0,90,0.00,,,0.00,Wunderground v.1.15,2013-02-27 11:57:00,
2013-02-27 06:58:00,36.5,33.8,29.76,WSW,241,3.0,4.0,90,0.00,,,0.00,Wunderground v.1.15,2013-02-27 11:58:00,
2013-02-27 07:03:00,36.4,34.0,29.76,WSW,248,4.0,5.0,91,0.00,,,0.01,Wunderground v.1.15,2013-02-27 12:03:00,
2013-02-27 07:07:00,36.3,33.9,29.76,WSW,250,3.0,5.0,91,0.00,,,0.01,Wunderground v.1.15,2013-02-27 12:07:00,
2013-02-27 07:08:00,36.3,33.9,29.76,SW,218,3.0,5.0,91,0.00,,,0.01,Wunderground v.1.15,2013-02-27 12:08:00,
2013-02-27 07:10:00,36.2,33.8,29.76,WSW,250,3.0,6.0,91,0.00,,,0.01,Wunderground v.1.15,2013-02-27 12:10:00,
2013-02-27 07:12:00,36.2,33.8,29.76,WSW,247,3.0,6.0,91,0.00,,,0.01,Wunderground v.1.15,2013-02-27 12:12:00,
2013-02-27 07:13:00,36.2,33.8,29.76,WSW,248,4.0,6.0,91,0.00,,,0.01,Wunderground v.1.15,2013-02-27 12:13:00,
2013-02-27 07:17:00,36.1,34.0,29.76,SW,229,3.0,3.0,92,0.00,,,0.01,Wunderground v.1.15,2013-02-27 12:17:00,
2013-02-27 07:19:00,36.1,34.0,29.76,SW,233,3.0,3.0,92,0.00,,,0.01,Wunderground v.1.15,2013-02-27 12:19:00,
2013-02-27 07:20:00,36.1,34.0,29.76,WNW,299,2.0,3.0,92,0.00,,,0.01,Wunderground v.1.15,2013-02-27 12:20:00,
2013-02-27 07:22:00,36.1,34.0,29.76,SSW,212,2.0,4.0,92,0.00,,,0.01,Wunderground v.1.15,2013-02-27 12:22:00,
2013-02-27 07:23:00,36.1,34.0,29.76,WSW,248,2.0,4.0,92,0.00,,,0.01,Wunderground v.1.15,2013-02-27 12:23:00,
2013-02-27 07:27:00,36.1,34.0,29.76,West,271,3.0,4.0,92,0.00,,,0.01,Wunderground v.1.15,2013-02-27 12:27:00,
2013-02-27 07:29:00,36.1,34.0,29.76,SW,221,4.0,4.0,92,0.00,,,0.01,Wunderground v.1.15,2013-02-27 12:29:00,
2013-02-27 07:30:00,36.1,34.0,29.77,SW,229,4.0,5.0,92,0.00,,,0.01,Wunderground v.1.15,2013-02-27 12:30:00,
2013-02-27 07:34:00,36.1,34.0,29.76,WSW,253,4.0,6.0,92,0.00,,,0.01,Wunderground v.1.15,2013-02-27 12:34:00,
2013-02-27 07:35:00,36.1,34.0,29.77,West,267,4.0,6.0,92,0.00,,,0.01,Wunderground v.1.15,2013-02-27 12:35:00,
2013-02-27 07:36:00,36.1,34.0,29.77,WSW,257,3.0,6.0,92,0.00,,,0.01,Wunderground v.1.15,2013-02-27 12:36:00,
2013-02-27 07:38:00,36.1,34.0,29.77,West,262,4.0,4.0,92,0.00,,,0.01,Wunderground v.1.15,2013-02-27 12:38:00,
2013-02-27 07:41:00,36.2,34.1,29.77,WNW,291,4.0,8.0,92,0.00,,,0.01,Wunderground v.1.15,2013-02-27 12:41:00,
2013-02-27 07:42:00,36.2,34.1,29.77,WSW,254,4.0,8.0,92,0.00,,,0.01,Wunderground v.1.15,2013-02-27 12:42:00,
2013-02-27 07:46:00,36.2,34.1,29.77,SW,229,5.0,8.0,92,0.00,,,0.01,Wunderground v.1.15,2013-02-27 12:46:00,
2013-02-27 07:47:00,36.1,34.0,29.77,WSW,246,5.0,5.0,92,0.00,,,0.01,Wunderground v.1.15,2013-02-27 12:47:00,
2013-02-27 07:49:00,36.1,34.0,29.77,WSW,252,5.0,5.0,92,0.00,,,0.01,Wunderground v.1.15,2013-02-27 12:49:00,
2013-02-27 07:51:00,36.1,34.0,29.77,WNW,285,5.0,6.0,92,0.00,,,0.01,Wunderground v.1.15,2013-02-27 12:51:00,
2013-02-27 07:52:00,36.1,34.0,29.77,WSW,254,5.0,6.0,92,0.00,,,0.01,Wunderground v.1.15,2013-02-27 12:52:00,
2013-02-27 07:55:00,36.1,34.0,29.77,WSW,246,5.0,6.0,92,0.00,,,0.01,Wunderground v.1.15,2013-02-27 12:55:00,
2013-02-27 07:58:00,36.1,34.0,29.78,West,269,5.0,7.0,92,0.00,,,0.01,Wunderground v.1.15,2013-02-27 12:58:00,
2013-02-27 07:59:00,36.0,33.9,29.78,West,281,5.0,7.0,92,0.00,,,0.01,Wunderground v.1.15,2013-02-27 12:59:00,
2013-02-27 08:00:00,36.0,33.9,29.78,SW,219,5.0,8.0,92,0.00,,,0.01,Wunderground v.1.15,2013-02-27 13:00:00,
2013-02-27 08:03:00,36.0,33.9,29.77,SW,232,5.0,12.0,92,0.00,,,0.01,Wunderground v.1.15,2013-02-27 13:03:00,
2013-02-27 08:06:00,36.0,33.9,29.77,South,191,5.0,12.0,92,0.00,,,0.01,Wunderground v.1.15,2013-02-27 13:06:00,
2013-02-27 08:08:00,35.9,33.8,29.77,West,264,5.0,7.0,92,0.00,,,0.01,Wunderground v.1.15,2013-02-27 13:08:00,
2013-02-27 08:10:00,35.9,33.8,29.78,WSW,252,5.0,7.0,92,0.00,,,0.01,Wunderground v.1.15,2013-02-27 13:10:00,
2013-02-27 08:13:00,35.9,33.8,29.78,SW,223,5.0,7.0,92,0.00,,,0.01,Wunderground v.1.15,2013-02-27 13:13:00,
2013-02-27 08:17:00,35.9,33.8,29.78,WSW,237,4.0,4.0,92,0.00,,,0.01,Wunderground v.1.15,2013-02-27 13:17:00,
2013-02-27 08:19:00,35.9,34.1,29.78,WSW,254,4.0,5.0,93,0.00,,,0.01,Wunderground v.1.15,2013-02-27 13:19:00,
2013-02-27 08:20:00,35.9,33.8,29.78,West,265,4.0,5.0,92,0.00,,,0.01,Wunderground v.1.15,2013-02-27 13:20:00,
2013-02-27 08:23:00,35.8,33.7,29.78,WSW,257,4.0,7.0,92,0.00,,,0.01,Wunderground v.1.15,2013-02-27 13:23:00,
2013-02-27 08:26:00,35.7,33.6,29.78,WSW,257,5.0,7.0,92,0.00,,,0.01,Wunderground v.1.15,2013-02-27 13:26:00,
2013-02-27 08:28:00,35.7,33.6,29.79,West,280,5.0,5.0,92,0.00,,,0.01,Wunderground v.1.15,2013-02-27 13:28:00,
2013-02-27 08:33:00,35.6,33.5,29.79,WSW,255,5.0,5.0,92,0.00,,,0.01,Wunderground v.1.15,2013-02-27 13:33:00,
2013-02-27 08:34:00,35.6,33.5,29.79,WSW,252,4.0,5.0,92,0.00,,,0.01,Wunderground v.1.15,2013-02-27 13:34:00,
2013-02-27 08:40:00,35.4,33.3,29.79,SW,221,5.0,5.0,92,0.00,,,0.01,Wunderground v.1.15,2013-02-27 13:40:00,
2013-02-27 08:41:00,35.4,33.3,29.79,West,275,5.0,5.0,92,0.00,,,0.01,Wunderground v.1.15,2013-02-27 13:41:00,
2013-02-27 08:46:00,35.4,33.6,29.79,SW,214,4.0,6.0,93,0.00,,,0.02,Wunderground v.1.15,2013-02-27 13:46:00,
2013-02-27 08:47:00,35.4,33.6,29.79,West,281,4.0,4.0,93,0.00,,,0.02,Wunderground v.1.15,2013-02-27 13:47:00,
2013-02-27 08:52:00,35.3,33.2,29.80,WSW,257,4.0,6.0,92,0.00,,,0.02,Wunderground v.1.15,2013-02-27 13:52:00,
2013-02-27 08:53:00,35.4,33.3,29.80,SW,229,4.0,6.0,92,0.00,,,0.02,Wunderground v.1.15,2013-02-27 13:53:00,
2013-02-27 09:00:00,35.4,33.3,29.80,SW,228,4.0,5.0,92,0.00,,,0.02,Wunderground v.1.15,2013-02-27 14:00:00,
2013-02-27 09:01:00,35.4,33.3,29.80,SW,232,4.0,5.0,92,0.00,,,0.02,Wunderground v.1.15,2013-02-27 14:01:00,
2013-02-27 09:09:00,35.3,33.2,29.80,WSW,246,5.0,5.0,92,0.00,,,0.02,Wunderground v.1.15,2013-02-27 14:09:00,
2013-02-27 09:14:00,35.3,33.2,29.81,West,269,5.0,6.0,92,0.00,,,0.02,Wunderground v.1.15,2013-02-27 14:14:00,
2013-02-27 09:16:00,35.3,33.2,29.81,NW,307,5.0,6.0,92,0.00,,,0.02,Wunderground v.1.15,2013-02-27 14:16:00,
2013-02-27 09:21:00,35.3,33.2,29.81,West,269,5.0,6.0,92,0.00,,,0.02,Wunderground v.1.15,2013-02-27 14:21:00,
2013-02-27 09:22:00,35.3,33.2,29.81,West,278,5.0,6.0,92,0.00,,,0.02,Wunderground v.1.15,2013-02-27 14:22:00,
2013-02-27 09:28:00,35.3,33.5,29.80,WNW,282,4.0,5.0,93,0.00,,,0.02,Wunderground v.1.15,2013-02-27 14:28:00,
2013-02-27 09:29:00,35.3,33.5,29.80,West,267,4.0,7.0,93,0.00,,,0.02,Wunderground v.1.15,2013-02-27 14:29:00,
2013-02-27 09:34:00,35.2,33.4,29.81,West,279,4.0,10.0,93,0.00,,,0.02,Wunderground v.1.15,2013-02-27 14:34:00,
2013-02-27 09:37:00,35.0,32.9,29.81,West,265,5.0,5.0,92,0.00,,,0.02,Wunderground v.1.15,2013-02-27 14:37:00,
2013-02-27 09:39:00,35.0,32.9,29.81,West,263,5.0,5.0,92,0.00,,,0.02,Wunderground v.1.15,2013-02-27 14:39:00,
2013-02-27 09:42:00,35.0,33.2,29.81,West,261,5.0,6.0,93,0.00,,,0.02,Wunderground v.1.15,2013-02-27 14:42:00,
2013-02-27 09:45:00,35.0,33.2,29.81,West,267,5.0,6.0,93,0.00,,,0.02,Wunderground v.1.15,2013-02-27 14:45:00,
2013-02-27 09:49:00,35.0,33.2,29.81,WNW,284,4.0,4.0,93,0.00,,,0.02,Wunderground v.1.15,2013-02-27 14:49:00,
2013-02-27 09:52:00,35.0,33.2,29.81,WNW,301,4.0,4.0,93,0.00,,,0.02,Wunderground v.1.15,2013-02-27 14:52:00,
2013-02-27 09:54:00,35.0,33.2,29.81,WSW,252,4.0,4.0,93,0.00,,,0.02,Wunderground v.1.15,2013-02-27 14:54:00,
2013-02-27 09:56:00,35.0,33.2,29.81,West,275,4.0,4.0,93,0.00,,,0.02,Wunderground v.1.15,2013-02-27 14:56:00,
2013-02-27 10:02:00,35.0,33.2,29.81,WNW,287,4.0,7.0,93,0.00,,,0.02,Wunderground v.1.15,2013-02-27 15:02:00,
2013-02-27 10:03:00,35.0,33.2,29.81,WSW,248,4.0,7.0,93,0.00,,,0.02,Wunderground v.1.15,2013-02-27 15:03:00,
2013-02-27 10:06:00,35.1,33.0,29.81,West,272,4.0,7.0,92,0.00,,,0.02,Wunderground v.1.15,2013-02-27 15:06:00,
2013-02-27 10:09:00,35.1,33.0,29.81,WSW,252,5.0,5.0,92,0.00,,,0.02,Wunderground v.1.15,2013-02-27 15:09:00,
2013-02-27 10:10:00,35.1,33.0,29.81,WSW,255,5.0,5.0,92,0.00,,,0.02,Wunderground v.1.15,2013-02-27 15:10:00,
2013-02-27 10:13:00,35.2,33.1,29.81,West,267,4.0,5.0,92,0.00,,,0.02,Wunderground v.1.15,2013-02-27 15:13:00,
2013-02-27 10:16:00,35.3,33.5,29.81,WSW,242,4.0,6.0,93,0.00,,,0.02,Wunderground v.1.15,2013-02-27 15:16:00,
2013-02-27 10:17:00,35.2,33.4,29.81,West,281,4.0,5.0,93,0.00,,,0.02,Wunderground v.1.15,2013-02-27 15:17:00,
2013-02-27 10:19:00,35.2,33.1,29.81,WSW,237,4.0,6.0,92,0.00,,,0.02,Wunderground v.1.15,2013-02-27 15:19:00,
2013-02-27 10:24:00,35.2,33.1,29.82,West,273,5.0,9.0,92,0.00,,,0.02,Wunderground v.1.15,2013-02-27 15:24:00,
2013-02-27 10:25:00,35.2,33.1,29.82,West,270,5.0,9.0,92,0.00,,,0.02,Wunderground v.1.15,2013-02-27 15:25:00,
2013-02-27 10:29:00,35.2,33.1,29.82,West,275,5.0,6.0,92,0.00,,,0.02,Wunderground v.1.15,2013-02-27 15:29:00,
2013-02-27 10:31:00,35.2,33.1,29.81,West,263,5.0,6.0,92,0.00,,,0.02,Wunderground v.1.15,2013-02-27 15:31:00,
2013-02-27 10:32:00,35.1,33.0,29.82,West,265,5.0,6.0,92,0.00,,,0.02,Wunderground v.1.15,2013-02-27 15:32:00,
2013-02-27 10:35:00,35.2,33.1,29.81,West,260,6.0,10.0,92,0.00,,,0.02,Wunderground v.1.15,2013-02-27 15:35:00,
2013-02-27 10:37:00,35.1,33.0,29.82,WSW,254,6.0,9.0,92,0.00,,,0.02,Wunderground v.1.15,2013-02-27 15:37:00,
2013-02-27 10:38:00,35.1,33.0,29.82,West,277,6.0,9.0,92,0.00,,,0.02,Wunderground v.1.15,2013-02-27 15:38:00,
2013-02-27 10:42:00,35.1,33.0,29.81,WNW,285,6.0,9.0,92,0.00,,,0.02,Wunderground v.1.15,2013-02-27 15:42:00,
2013-02-27 10:43:00,35.1,33.0,29.81,WSW,245,6.0,9.0,92,0.00,,,0.02,Wunderground v.1.15,2013-02-27 15:43:00,
2013-02-27 10:47:00,35.1,33.0,29.81,SW,236,5.0,9.0,92,0.00,,,0.02,Wunderground v.1.15,2013-02-27 15:47:00,
2013-02-27 10:51:00,35.0,32.9,29.81,WSW,254,5.0,9.0,92,0.00,,,0.02,Wunderground v.1.15,2013-02-27 15:51:00,
2013-02-27 10:52:00,35.0,32.9,29.81,WSW,256,5.0,9.0,92,0.00,,,0.02,Wunderground v.1.15,2013-02-27 15:52:00,
2013-02-27 10:53:00,35.0,32.9,29.81,WSW,254,5.0,9.0,92,0.00,,,0.02,Wunderground v.1.15,2013-02-27 15:53:00,
2013-02-27 10:56:00,35.1,33.0,29.81,WSW,253,5.0,9.0,92,0.00,,,0.02,Wunderground v.1.15,2013-02-27 15:56:00,
2013-02-27 10:58:00,35.1,33.0,29.81,SW,226,5.0,5.0,92,0.00,,,0.02,Wunderground v.1.15,2013-02-27 15:58:00,
2013-02-27 11:01:00,35.1,33.0,29.81,West,275,4.0,7.0,92,0.00,,,0.02,Wunderground v.1.15,2013-02-27 16:01:00,
2013-02-27 11:04:00,35.1,33.0,29.81,WSW,240,4.0,8.0,92,0.00,,,0.02,Wunderground v.1.15,2013-02-27 16:04:00,
2013-02-27 11:08:00,35.2,33.1,29.81,WSW,251,4.0,4.0,92,0.00,,,0.02,Wunderground v.1.15,2013-02-27 16:08:00,
2013-02-27 11:10:00,35.2,33.1,29.81,WSW,243,4.0,5.0,92,0.00,,,0.02,Wunderground v.1.15,2013-02-27 16:10:00,
2013-02-27 11:12:00,35.2,33.1,29.81,West,270,4.0,5.0,92,0.00,,,0.02,Wunderground v.1.15,2013-02-27 16:12:00,
2013-02-27 11:14:00,35.2,33.1,29.81,WSW,252,4.0,5.0,92,0.00,,,0.02,Wunderground v.1.15,2013-02-27 16:14:00,
2013-02-27 11:15:00,35.2,33.1,29.81,WNW,296,5.0,5.0,92,0.00,,,0.02,Wunderground v.1.15,2013-02-27 16:15:00,
2013-02-27 11:17:00,35.2,33.1,29.81,WNW,282,5.0,6.0,92,0.00,,,0.02,Wunderground v.1.15,2013-02-27 16:17:00,
2013-02-27 11:20:00,35.2,32.8,29.81,West,279,5.0,9.0,91,0.00,,,0.02,Wunderground v.1.15,2013-02-27 16:20:00,
2013-02-27 11:23:00,35.3,32.9,29.81,WSW,248,5.0,9.0,91,0.00,,,0.02,Wunderground v.1.15,2013-02-27 16:23:00,
2013-02-27 11:27:00,35.3,33.2,29.82,SW,227,4.0,4.0,92,0.00,,,0.02,Wunderground v.1.15,2013-02-27 16:27:00,
2013-02-27 11:29:00,35.3,33.2,29.82,SW,215,4.0,5.0,92,0.00,,,0.02,Wunderground v.1.15,2013-02-27 16:29:00,
2013-02-27 11:33:00,35.3,33.2,29.81,West,269,4.0,5.0,92,0.00,,,0.02,Wunderground v.1.15,2013-02-27 16:33:00,
2013-02-27 11:34:00,35.3,33.2,29.81,SW,222,4.0,7.0,92,0.00,,,0.02,Wunderground v.1.15,2013-02-27 16:34:00,
2013-02-27 11:39:00,35.2,33.1,29.82,West,273,4.0,6.0,92,0.00,,,0.02,Wunderground v.1.15,2013-02-27 16:39:00,
2013-02-27 11:40:00,35.2,33.1,29.82,West,277,4.0,6.0,92,0.00,,,0.02,Wunderground v.1.15,2013-02-27 16:40:00,
2013-02-27 11:41:00,35.2,33.1,29.82,WNW,290,4.0,6.0,92,0.00,,,0.02,Wunderground v.1.15,2013-02-27 16:41:00,
2013-02-27 11:46:00,35.2,33.1,29.82,WSW,256,4.0,7.0,92,0.00,,,0.02,Wunderground v.1.15,2013-02-27 16:46:00,
2013-02-27 11:47:00,35.2,33.1,29.82,WSW,258,4.0,9.0,92,0.00,,,0.02,Wunderground v.1.15,2013-02-27 16:47:00,
2013-02-27 11:49:00,35.2,33.1,29.82,SW,234,4.0,10.0,92,0.00,,,0.02,Wunderground v.1.15,2013-02-27 16:49:00,
2013-02-27 11:53:00,35.2,32.8,29.82,WSW,253,5.0,10.0,91,0.00,,,0.02,Wunderground v.1.15,2013-02-27 16:53:00,
2013-02-27 11:54:00,35.3,32.9,29.82,West,272,5.0,10.0,91,0.00,,,0.02,Wunderground v.1.15,2013-02-27 16:54:00,
2013-02-27 11:56:00,35.4,33.0,29.82,SW,229,5.0,10.0,91,0.00,,,0.02,Wunderground v.1.15,2013-02-27 16:56:00,
2013-02-27 12:01:00,35.6,33.2,29.82,SW,232,5.0,7.0,91,0.00,,,0.02,Wunderground v.1.15,2013-02-27 17:01:00,
2013-02-27 12:02:00,35.6,33.0,29.82,SSW,199,5.0,7.0,90,0.00,,,0.02,Wunderground v.1.15,2013-02-27 17:02:00,
2013-02-27 12:03:00,33.2,30.3,29.87,West,277,5.0,5.0,89,0.00,,,0.03,Wunderground v.1.15,2013-02-27 17:03:00,
2013-02-27 12:04:00,35.6,33.0,29.82,West,277,5.0,7.0,90,0.00,,,0.02,Wunderground v.1.15,2013-02-27 17:04:00,
2013-02-27 12:05:00,33.2,30.3,29.87,West,261,4.0,8.0,89,0.00,,,0.00,Wunderground v.1.15,2013-02-27 17:05:00,
2013-02-27 12:06:00,33.2,30.3,29.87,WSW,246,4.0,8.0,89,0.00,,,0.00,Wunderground v.1.15,2013-02-27 17:06:00,
2013-02-27 12:07:00,33.2,30.3,29.86,West,276,4.0,8.0,89,0.00,,,0.00,Wunderground v.1.15,2013-02-27 17:07:00,
2013-02-27 12:08:00,33.2,30.3,29.87,WSW,250,4.0,8.0,89,0.00,,,0.00,Wunderground v.1.15,2013-02-27 17:08:00,
2013-02-27 12:09:00,35.9,33.3,29.82,SW,215,4.0,4.0,90,0.00,,,0.02,Wunderground v.1.15,2013-02-27 17:09:00,
2013-02-27 12:10:00,36.0,33.4,29.82,SSW,212,4.0,4.0,90,0.00,,,0.02,Wunderground v.1.15,2013-02-27 17:10:00,
2013-02-27 12:11:00,36.0,33.4,29.82,West,265,4.0,8.0,90,0.00,,,0.02,Wunderground v.1.15,2013-02-27 17:11:00,
2013-02-27 12:12:00,33.1,30.2,29.86,WSW,257,5.0,7.0,89,0.00,,,0.00,Wunderground v.1.15,2013-02-27 17:12:00,
2013-02-27 12:13:00,33.1,30.2,29.87,WSW,242,5.0,7.0,89,0.00,,,0.00,Wunderground v.1.15,2013-02-27 17:13:00,
2013-02-27 12:14:00,33.1,30.2,29.87,West,263,5.0,7.0,89,0.00,,,0.00,Wunderground v.1.15,2013-02-27 17:14:00,
2013-02-27 12:15:00,36.1,32.9,29.81,SSW,213,4.0,8.0,88,0.00,,,0.02,Wunderground v.1.15,2013-02-27 17:15:00,
2013-02-27 12:16:00,33.1,30.2,29.87,WNW,293,5.0,7.0,89,0.00,,,0.00,Wunderground v.1.15,2013-02-27 17:16:00,
2013-02-27 12:17:00,36.2,33.0,29.81,SW,233,4.0,4.0,88,0.00,,,0.02,Wunderground v.1.15,2013-02-27 17:17:00,
2013-02-27 12:18:00,33.1,30.2,29.87,West,265,4.0,7.0,89,0.00,,,0.00,Wunderground v.1.15,2013-02-27 17:18:00,
2013-02-27 12:19:00,33.1,30.2,29.87,West,270,4.0,7.0,89,0.00,,,0.00,Wunderground v.1.15,2013-02-27 17:19:00,
2013-02-27 12:20:00,33.1,30.2,29.87,West,269,4.0,5.0,89,0.00,,,0.00,Wunderground v.1.15,2013-02-27 17:20:00,
2013-02-27 12:21:00,36.4,33.5,29.81,SW,234,5.0,5.0,89,0.00,,,0.02,Wunderground v.1.15,2013-02-27 17:21:00,
2013-02-27 12:22:00,33.1,30.2,29.87,SW,229,4.0,6.0,89,0.00,,,0.00,Wunderground v.1.15,2013-02-27 17:22:00,
2013-02-27 12:23:00,33.1,30.2,29.87,West,276,4.0,6.0,89,0.00,,,0.00,Wunderground v.1.15,2013-02-27 17:23:00,
2013-02-27 12:24:00,36.5,33.0,29.81,WSW,240,5.0,10.0,87,0.00,,,0.02,Wunderground v.1.15,2013-02-27 17:24:00,
2013-02-27 12:25:00,33.2,30.3,29.87,West,279,4.0,6.0,89,0.00,,,0.00,Wunderground v.1.15,2013-02-27 17:25:00,
2013-02-27 12:26:00,36.7,33.5,29.81,WSW,258,5.0,10.0,88,0.00,,,0.02,Wunderground v.1.15,2013-02-27 17:26:00,
2013-02-27 12:27:00,36.9,33.7,29.81,WNW,294,4.0,6.0,88,0.00,,,0.02,Wunderground v.1.15,2013-02-27 17:27:00,
2013-02-27 12:28:00,33.2,30.3,29.87,West,262,4.0,10.0,89,0.00,,,0.00,Wunderground v.1.15,2013-02-27 17:28:00,
2013-02-27 12:29:00,37.1,33.6,29.81,West,262,5.0,8.0,87,0.00,,,0.02,Wunderground v.1.15,2013-02-27 17:29:00,
2013-02-27 12:30:00,33.2,30.0,29.87,West,261,5.0,5.0,88,0.00,,,0.00,Wunderground v.1.15,2013-02-27 17:30:00,
2013-02-27 12:31:00,33.2,30.3,29.86,WSW,257,5.0,5.0,89,0.00,,,0.00,Wunderground v.1.15,2013-02-27 17:31:00,
2013-02-27 12:32:00,33.2,30.3,29.87,West,279,5.0,5.0,89,0.00,,,0.00,Wunderground v.1.15,2013-02-27 17:32:00,
2013-02-27 12:33:00,37.4,34.2,29.81,West,263,5.0,8.0,88,0.00,,,0.02,Wunderground v.1.15,2013-02-27 17:33:00,
2013-02-27 12:34:00,33.2,30.3,29.86,WSW,237,5.0,5.0,89,0.00,,,0.00,Wunderground v.1.15,2013-02-27 17:34:00,
2013-02-27 12:35:00,33.2,30.3,29.86,West,261,5.0,6.0,89,0.00,,,0.00,Wunderground v.1.15,2013-02-27 17:35:00,
2013-02-27 12:36:00,37.5,34.0,29.81,West,263,5.0,8.0,87,0.00,,,0.02,Wunderground v.1.15,2013-02-27 17:36:00,
2013-02-27 12:37:00,33.2,30.3,29.86,West,259,5.0,6.0,89,0.00,,,0.00,Wunderground v.1.15,2013-02-27 17:37:00,
2013-02-27 12:38:00,33.2,30.3,29.86,West,265,5.0,6.0,89,0.00,,,0.00,Wunderground v.1.15,2013-02-27 17:38:00,
2013-02-27 12:39:00,33.2,30.0,29.86,WSW,255,5.0,6.0,88,0.00,,,0.00,Wunderground v.1.15,2013-02-27 17:39:00,
2013-02-27 12:40:00,37.4,33.3,29.81,WSW,257,5.0,9.0,85,0.00,,,0.02,Wunderground v.1.15,2013-02-27 17:40:00,
2013-02-27 12:41:00,33.2,30.0,29.86,SW,219,4.0,5.0,88,0.00,,,0.00,Wunderground v.1.15,2013-02-27 17:41:00,
2013-02-27 12:42:00,37.3,32.9,29.81,West,259,6.0,10.0,84,0.00,,,0.02,Wunderground v.1.15,2013-02-27 17:42:00,
2013-02-27 12:43:00,33.2,30.0,29.86,SW,234,5.0,5.0,88,0.00,,,0.00,Wunderground v.1.15,2013-02-27 17:43:00,
2013-02-27 12:44:00,33.2,30.3,29.86,West,278,5.0,8.0,89,0.00,,,0.00,Wunderground v.1.15,2013-02-27 17:44:00,
2013-02-27 12:45:00,33.2,30.3,29.86,WSW,240,5.0,8.0,89,0.00,,,0.00,Wunderground v.1.15,2013-02-27 17:45:00,
2013-02-27 12:46:00,37.3,33.5,29.81,West,273,6.0,10.0,86,0.00,,,0.02,Wunderground v.1.15,2013-02-27 17:46:00,
2013-02-27 12:47:00,33.2,30.3,29.86,SW,224,5.0,8.0,89,0.00,,,0.00,Wunderground v.1.15,2013-02-27 17:47:00,
2013-02-27 12:48:00,37.2,33.4,29.81,WSW,242,5.0,6.0,86,0.00,,,0.02,Wunderground v.1.15,2013-02-27 17:48:00,
2013-02-27 12:49:00,37.2,33.4,29.81,West,261,5.0,6.0,86,0.00,,,0.02,Wunderground v.1.15,2013-02-27 17:49:00,
2013-02-27 12:50:00,33.1,29.9,29.87,WSW,249,5.0,5.0,88,0.00,,,0.00,Wunderground v.1.15,2013-02-27 17:50:00,
2013-02-27 12:51:00,33.2,30.0,29.87,West,276,5.0,7.0,88,0.00,,,0.00,Wunderground v.1.15,2013-02-27 17:51:00,
2013-02-27 12:52:00,33.2,30.0,29.87,West,264,6.0,7.0,88,0.00,,,0.00,Wunderground v.1.15,2013-02-27 17:52:00,
2013-02-27 12:53:00,37.1,33.0,29.81,SW,232,4.0,7.0,85,0.00,,,0.02,Wunderground v.1.15,2013-02-27 17:53:00,
2013-02-27 12:54:00,33.2,30.0,29.87,WNW,300,5.0,7.0,88,0.00,,,0.00,Wunderground v.1.15,2013-02-27 17:54:00,
2013-02-27 12:55:00,33.2,30.3,29.86,WSW,257,5.0,7.0,89,0.00,,,0.00,Wunderground v.1.15,2013-02-27 17:55:00,
2013-02-27 12:56:00,37.0,32.9,29.81,WSW,251,4.0,7.0,85,0.00,,,0.02,Wunderground v.1.15,2013-02-27 17:56:00,
2013-02-27 12:57:00,37.0,32.9,29.81,SW,218,5.0,6.0,85,0.00,,,0.02,Wunderground v.1.15,2013-02-27 17:57:00,
2013-02-27 12:58:00,33.1,29.9,29.87,WSW,244,5.0,7.0,88,0.00,,,0.00,Wunderground v.1.15,2013-02-27 17:58:00,
2013-02-27 12:59:00,33.1,29.9,29.87,West,276,5.0,9.0,88,0.00,,,0.00,Wunderground v.1.15,2013-02-27 17:59:00,
2013-02-27 13:00:00,37.1,32.7,29.81,WNW,298,5.0,10.0,84,0.00,,,0.02,Wunderground v.1.15,2013-02-27 18:00:00,
2013-02-27 13:01:00,33.1,29.9,29.87,West,262,5.0,7.0,88,0.00,,,0.00,Wunderground v.1.15,2013-02-27 18:01:00,
2013-02-27 13:02:00,37.1,33.0,29.80,SSE,165,6.0,10.0,85,0.00,,,0.02,Wunderground v.1.15,2013-02-27 18:02:00,
2013-02-27 13:03:00,33.2,30.0,29.86,West,271,5.0,7.0,88,0.00,,,0.00,Wunderground v.1.15,2013-02-27 18:03:00,
2013-02-27 13:04:00,33.2,30.0,29.87,West,273,5.0,7.0,88,0.00,,,0.00,Wunderground v.1.15,2013-02-27 18:04:00,
2013-02-27 13:05:00,33.1,29.9,29.87,WSW,237,5.0,7.0,88,0.00,,,0.00,Wunderground v.1.15,2013-02-27 18:05:00,
2013-02-27 13:06:00,33.2,30.0,29.87,WNW,288,5.0,7.0,88,0.00,,,0.00,Wunderground v.1.15,2013-02-27 18:06:00,
2013-02-27 13:07:00,37.3,32.9,29.81,West,269,5.0,5.0,84,0.00,,,0.02,Wunderground v.1.15,2013-02-27 18:07:00,
2013-02-27 13:09:00,37.4,32.7,29.81,WNW,285,5.0,6.0,83,0.00,,,0.02,Wunderground v.1.15,2013-02-27 18:09:00,
2013-02-27 13:10:00,33.1,29.9,29.86,WSW,240,5.0,6.0,88,0.00,,,0.00,Wunderground v.1.15,2013-02-27 18:10:00,
2013-02-27 13:11:00,33.1,29.9,29.86,West,281,4.0,6.0,88,0.00,,,0.00,Wunderground v.1.15,2013-02-27 18:11:00,
2013-02-27 13:13:00,37.5,32.5,29.80,West,266,5.0,13.0,82,0.00,,,0.02,Wunderground v.1.15,2013-02-27 18:13:00,
2013-02-27 13:14:00,33.1,29.9,29.86,WNW,294,5.0,9.0,88,0.00,,,0.00,Wunderground v.1.15,2013-02-27 18:14:00,
2013-02-27 13:15:00,33.2,29.8,29.86,WSW,242,5.0,9.0,87,0.00,,,0.00,Wunderground v.1.15,2013-02-27 18:15:00,
2013-02-27 13:16:00,37.5,31.9,29.80,SW,221,6.0,13.0,80,0.00,,,0.02,Wunderground v.1.15,2013-02-27 18:16:00,
2013-02-27 13:18:00,37.6,32.3,29.80,West,267,6.0,6.0,81,0.00,,,0.02,Wunderground v.1.15,2013-02-27 18:18:00,
2013-02-27 13:19:00,33.2,29.8,29.86,West,260,5.0,9.0,87,0.00,,,0.00,Wunderground v.1.15,2013-02-27 18:19:00,
2013-02-27 13:20:00,37.7,32.7,29.80,WSW,256,5.0,12.0,82,0.00,,,0.02,Wunderground v.1.15,2013-02-27 18:20:00,
2013-02-27 13:21:00,37.6,32.3,29.80,SW,223,6.0,12.0,81,0.00,,,0.02,Wunderground v.1.15,2013-02-27 18:21:00,
2013-02-27 13:23:00,37.6,32.3,29.80,WSW,247,6.0,12.0,81,0.00,,,0.02,Wunderground v.1.15,2013-02-27 18:23:00,
2013-02-27 13:24:00,37.6,32.6,29.80,WSW,254,5.0,12.0,82,0.00,,,0.02,Wunderground v.1.15,2013-02-27 18:24:00,
2013-02-27 13:28:00,37.4,32.1,29.80,SW,217,5.0,5.0,81,0.00,,,0.02,Wunderground v.1.15,2013-02-27 18:28:00,
2013-02-27 13:29:00,37.4,31.8,29.80,WSW,250,6.0,6.0,80,0.00,,,0.02,Wunderground v.1.15,2013-02-27 18:29:00,
2013-02-27 13:32:00,37.3,32.3,29.80,West,267,6.0,8.0,82,0.00,,,0.02,Wunderground v.1.15,2013-02-27 18:32:00,
2013-02-27 13:37:00,37.7,33.3,29.80,SW,233,6.0,10.0,84,0.00,,,0.02,Wunderground v.1.15,2013-02-27 18:37:00,
2013-02-27 13:38:00,37.8,33.4,29.80,SSW,196,6.0,10.0,84,0.00,,,0.02,Wunderground v.1.15,2013-02-27 18:38:00,
2013-02-27 13:40:00,38.0,33.6,29.80,WSW,244,6.0,10.0,84,0.00,,,0.02,Wunderground v.1.15,2013-02-27 18:40:00,
2013-02-27 13:42:00,38.0,33.3,29.80,WSW,243,6.0,10.0,83,0.00,,,0.02,Wunderground v.1.15,2013-02-27 18:42:00,
2013-02-27 13:43:00,33.1,29.7,29.87,West,271,3.0,5.0,87,0.00,,,0.00,Wunderground v.1.15,2013-02-27 18:43:00,
2013-02-27 13:44:00,37.9,32.6,29.80,West,265,6.0,10.0,81,0.00,,,0.02,Wunderground v.1.15,2013-02-27 18:44:00,
2013-02-27 13:46:00,37.8,32.5,29.80,West,263,6.0,10.0,81,0.00,,,0.02,Wunderground v.1.15,2013-02-27 18:46:00,
2013-02-27 13:48:00,37.8,32.8,29.80,SW,229,5.0,6.0,82,0.00,,,0.02,Wunderground v.1.15,2013-02-27 18:48:00,
2013-02-27 13:49:00,33.1,29.7,29.86,WSW,250,4.0,7.0,87,0.00,,,0.00,Wunderground v.1.15,2013-02-27 18:49:00,
2013-02-27 13:50:00,37.7,32.4,29.80,West,275,5.0,6.0,81,0.00,,,0.02,Wunderground v.1.15,2013-02-27 18:50:00,
2013-02-27 13:54:00,37.6,31.7,29.80,West,265,6.0,8.0,79,0.00,,,0.02,Wunderground v.1.15,2013-02-27 18:54:00,
2013-02-27 13:55:00,37.6,31.7,29.80,SSE,154,6.0,8.0,79,0.00,,,0.02,Wunderground v.1.15,2013-02-27 18:55:00,
2013-02-27 14:01:00,33.2,29.8,29.86,WSW,258,4.0,6.0,87,0.00,,,0.00,Wunderground v.1.15,2013-02-27 19:01:00,
2013-02-27 14:03:00,38.0,32.4,29.80,West,265,5.0,7.0,80,0.00,,,0.02,Wunderground v.1.15,2013-02-27 19:03:00,
2013-02-27 14:04:00,38.1,32.2,29.80,WSW,241,5.0,7.0,79,0.00,,,0.02,Wunderground v.1.15,2013-02-27 19:04:00,
2013-02-27 14:05:00,38.1,32.2,29.80,WSW,254,5.0,7.0,79,0.00,,,0.02,Wunderground v.1.15,2013-02-27 19:05:00,
2013-02-27 14:07:00,33.1,29.7,29.86,West,274,5.0,8.0,87,0.00,,,0.00,Wunderground v.1.15,2013-02-27 19:07:00,
2013-02-27 14:10:00,38.3,31.7,29.80,WNW,282,6.0,7.0,77,0.00,,,0.02,Wunderground v.1.15,2013-02-27 19:10:00,
2013-02-27 14:12:00,38.4,32.1,29.80,West,273,6.0,7.0,78,0.00,,,0.02,Wunderground v.1.15,2013-02-27 19:12:00,
2013-02-27 14:14:00,38.4,30.8,29.80,SW,229,6.0,12.0,74,0.00,,,0.02,Wunderground v.1.15,2013-02-27 19:14:00,
2013-02-27 14:18:00,38.3,31.1,29.80,SW,228,7.0,7.0,75,0.00,,,0.02,Wunderground v.1.15,2013-02-27 19:18:00,
2013-02-27 14:22:00,38.2,30.6,29.80,West,281,6.0,9.0,74,0.00,,,0.02,Wunderground v.1.15,2013-02-27 19:22:00,
2013-02-27 14:24:00,38.1,30.5,29.80,West,262,7.0,9.0,74,0.00,,,0.02,Wunderground v.1.15,2013-02-27 19:24:00,
2013-02-27 14:27:00,38.0,30.8,29.80,SSW,207,7.0,7.0,75,0.00,,,0.02,Wunderground v.1.15,2013-02-27 19:27:00,
2013-02-27 14:29:00,38.0,30.8,29.80,West,270,7.0,10.0,75,0.00,,,0.02,Wunderground v.1.15,2013-02-27 19:29:00,
2013-02-27 14:34:00,38.0,31.1,29.80,WSW,256,7.0,10.0,76,0.00,,,0.02,Wunderground v.1.15,2013-02-27 19:34:00,
2013-02-27 14:36:00,38.1,30.5,29.80,SE,146,6.0,10.0,74,0.00,,,0.02,Wunderground v.1.15,2013-02-27 19:36:00,
2013-02-27 14:43:00,38.2,31.0,29.80,WNW,286,7.0,10.0,75,0.00,,,0.02,Wunderground v.1.15,2013-02-27 19:43:00,
2013-02-27 14:46:00,38.2,31.0,29.81,West,268,6.0,10.0,75,0.00,,,0.02,Wunderground v.1.15,2013-02-27 19:46:00,
2013-02-27 14:49:00,38.4,32.1,29.80,WSW,257,5.0,6.0,78,0.00,,,0.02,Wunderground v.1.15,2013-02-27 19:49:00,
2013-02-27 14:52:00,38.5,31.9,29.80,WSW,240,4.0,6.0,77,0.00,,,0.02,Wunderground v.1.15,2013-02-27 19:52:00,
2013-02-27 14:54:00,38.5,31.6,29.80,WSW,246,4.0,6.0,76,0.00,,,0.02,Wunderground v.1.15,2013-02-27 19:54:00,
2013-02-27 14:55:00,38.4,31.2,29.80,SW,236,4.0,9.0,75,0.00,,,0.02,Wunderground v.1.15,2013-02-27 19:55:00,
2013-02-27 14:57:00,38.3,30.4,29.80,SSW,202,5.0,5.0,73,0.00,,,0.02,Wunderground v.1.15,2013-02-27 19:57:00,
2013-02-27 15:00:00,38.2,30.0,29.81,South,188,7.0,9.0,72,0.00,,,0.02,Wunderground v.1.15,2013-02-27 20:00:00,
2013-02-27 15:03:00,38.1,30.5,29.81,WSW,257,7.0,10.0,74,0.00,,,0.02,Wunderground v.1.15,2013-02-27 20:03:00,
2013-02-27 15:04:00,38.1,30.2,29.81,WSW,247,7.0,10.0,73,0.00,,,0.02,Wunderground v.1.15,2013-02-27 20:04:00,
2013-02-27 15:05:00,38.1,30.2,29.81,West,259,7.0,10.0,73,0.00,,,0.02,Wunderground v.1.15,2013-02-27 20:05:00,
2013-02-27 15:08:00,38.1,30.9,29.81,WSW,240,7.0,7.0,75,0.00,,,0.02,Wunderground v.1.15,2013-02-27 20:08:00,
2013-02-27 15:09:00,38.1,30.5,29.81,West,264,6.0,7.0,74,0.00,,,0.02,Wunderground v.1.15,2013-02-27 20:09:00,
2013-02-27 15:11:00,38.1,31.2,29.81,West,270,6.0,9.0,76,0.00,,,0.02,Wunderground v.1.15,2013-02-27 20:11:00,
2013-02-27 15:15:00,38.0,30.1,29.81,SSW,204,6.0,9.0,73,0.00,,,0.02,Wunderground v.1.15,2013-02-27 20:15:00,
2013-02-27 15:16:00,38.0,30.4,29.81,SW,222,5.0,9.0,74,0.00,,,0.02,Wunderground v.1.15,2013-02-27 20:16:00,
2013-02-27 15:18:00,37.9,30.0,29.81,WSW,240,6.0,6.0,73,0.00,,,0.02,Wunderground v.1.15,2013-02-27 20:18:00,
2013-02-27 15:19:00,37.9,30.4,29.81,WSW,247,6.0,8.0,74,0.00,,,0.02,Wunderground v.1.15,2013-02-27 20:19:00,
2013-02-27 15:24:00,37.9,30.7,29.81,West,261,6.0,8.0,75,0.00,,,0.02,Wunderground v.1.15,2013-02-27 20:24:00,
2013-02-27 15:25:00,37.9,30.4,29.81,WSW,238,6.0,8.0,74,0.00,,,0.02,Wunderground v.1.15,2013-02-27 20:25:00,
2013-02-27 15:28:00,37.8,30.3,29.81,SW,217,6.0,7.0,74,0.00,,,0.02,Wunderground v.1.15,2013-02-27 20:28:00,
2013-02-27 15:31:00,37.8,30.9,29.81,South,178,5.0,11.0,76,0.00,,,0.02,Wunderground v.1.15,2013-02-27 20:31:00,
2013-02-27 15:35:00,37.7,30.8,29.81,West,263,5.0,12.0,76,0.00,,,0.02,Wunderground v.1.15,2013-02-27 20:35:00,
2013-02-27 15:36:00,37.7,31.1,29.81,SSW,209,6.0,12.0,77,0.00,,,0.02,Wunderground v.1.15,2013-02-27 20:36:00,
2013-02-27 15:40:00,37.5,30.6,29.81,SW,229,6.0,10.0,76,0.00,,,0.02,Wunderground v.1.15,2013-02-27 20:40:00,
2013-02-27 15:41:00,37.5,30.6,29.81,WSW,246,6.0,10.0,76,0.00,,,0.02,Wunderground v.1.15,2013-02-27 20:41:00,
2013-02-27 15:42:00,37.5,30.6,29.81,WNW,284,6.0,10.0,76,0.00,,,0.02,Wunderground v.1.15,2013-02-27 20:42:00,
2013-02-27 15:44:00,37.4,30.8,29.81,West,275,5.0,10.0,77,0.00,,,0.02,Wunderground v.1.15,2013-02-27 20:44:00,
2013-02-27 15:45:00,37.4,30.8,29.81,WSW,254,6.0,10.0,77,0.00,,,0.02,Wunderground v.1.15,2013-02-27 20:45:00,
2013-02-27 15:46:00,37.4,30.5,29.81,SSW,207,6.0,12.0,76,0.00,,,0.02,Wunderground v.1.15,2013-02-27 20:46:00,
2013-02-27 15:50:00,37.3,30.4,29.82,SSW,207,6.0,6.0,76,0.00,,,0.02,Wunderground v.1.15,2013-02-27 20:50:00,
2013-02-27 15:51:00,37.3,30.7,29.82,SW,234,6.0,13.0,77,0.00,,,0.02,Wunderground v.1.15,2013-02-27 20:51:00,
2013-02-27 15:56:00,37.5,30.6,29.82,WSW,243,6.0,13.0,76,0.00,,,0.02,Wunderground v.1.15,2013-02-27 20:56:00,
2013-02-27 15:58:00,37.5,30.6,29.82,WSW,237,6.0,7.0,76,0.00,,,0.02,Wunderground v.1.15,2013-02-27 20:58:00,
2013-02-27 16:00:00,37.6,30.7,29.82,West,267,6.0,8.0,76,0.00,,,0.02,Wunderground v.1.15,2013-02-27 21:00:00,
2013-02-27 16:01:00,37.6,30.7,29.81,WNW,284,6.0,8.0,76,0.00,,,0.02,Wunderground v.1.15,2013-02-27 21:01:00,
2013-02-27 16:04:00,37.7,31.1,29.82,WSW,251,6.0,8.0,77,0.00,,,0.02,Wunderground v.1.15,2013-02-27 21:04:00,
2013-02-27 16:06:00,37.8,30.9,29.82,WSW,238,5.0,9.0,76,0.00,,,0.02,Wunderground v.1.15,2013-02-27 21:06:00,
2013-02-27 16:08:00,37.7,30.8,29.82,West,259,5.0,5.0,76,0.00,,,0.02,Wunderground v.1.15,2013-02-27 21:08:00,
2013-02-27 16:10:00,37.7,30.5,29.82,WNW,296,5.0,10.0,75,0.00,,,0.02,Wunderground v.1.15,2013-02-27 21:10:00,
2013-02-27 16:11:00,37.7,30.5,29.82,SSW,211,5.0,10.0,75,0.00,,,0.02,Wunderground v.1.15,2013-02-27 21:11:00,
2013-02-27 16:15:00,37.7,30.5,29.82,SW,227,6.0,12.0,75,0.00,,,0.02,Wunderground v.1.15,2013-02-27 21:15:00,
2013-02-27 16:16:00,37.6,30.4,29.82,SW,227,7.0,12.0,75,0.00,,,0.02,Wunderground v.1.15,2013-02-27 21:16:00,
2013-02-27 16:19:00,37.6,30.4,29.82,West,271,7.0,7.0,75,0.00,,,0.02,Wunderground v.1.15,2013-02-27 21:19:00,
2013-02-27 16:20:00,37.6,30.7,29.82,West,272,7.0,7.0,76,0.00,,,0.02,Wunderground v.1.15,2013-02-27 21:20:00,
2013-02-27 16:23:00,37.6,31.0,29.82,SW,218,6.0,7.0,77,0.00,,,0.02,Wunderground v.1.15,2013-02-27 21:23:00,
2013-02-27 16:24:00,37.6,30.4,29.82,WSW,245,6.0,7.0,75,0.00,,,0.02,Wunderground v.1.15,2013-02-27 21:24:00,
2013-02-27 16:27:00,37.6,30.4,29.82,WSW,239,6.0,7.0,75,0.00,,,0.02,Wunderground v.1.15,2013-02-27 21:27:00,
2013-02-27 16:29:00,37.6,30.7,29.82,West,277,5.0,7.0,76,0.00,,,0.02,Wunderground v.1.15,2013-02-27 21:29:00,
2013-02-27 16:30:00,37.5,30.6,29.82,WSW,243,5.0,7.0,76,0.00,,,0.02,Wunderground v.1.15,2013-02-27 21:30:00,
2013-02-27 16:33:00,37.5,30.6,29.82,SW,223,6.0,8.0,76,0.00,,,0.02,Wunderground v.1.15,2013-02-27 21:33:00,
2013-02-27 16:38:00,37.5,31.3,29.82,South,191,5.0,8.0,78,0.00,,,0.02,Wunderground v.1.15,2013-02-27 21:38:00,
2013-02-27 16:39:00,37.6,31.4,29.82,West,279,5.0,8.0,78,0.00,,,0.02,Wunderground v.1.15,2013-02-27 21:39:00,
2013-02-27 16:41:00,37.5,30.9,29.82,SW,222,5.0,11.0,77,0.00,,,0.02,Wunderground v.1.15,2013-02-27 21:41:00,
2013-02-27 16:44:00,37.6,31.4,29.82,WSW,254,4.0,11.0,78,0.00,,,0.02,Wunderground v.1.15,2013-02-27 21:44:00,
2013-02-27 16:46:00,37.7,31.5,29.82,WSW,248,4.0,11.0,78,0.00,,,0.02,Wunderground v.1.15,2013-02-27 21:46:00,
2013-02-27 16:51:00,37.5,30.9,29.82,WSW,257,5.0,7.0,77,0.00,,,0.02,Wunderground v.1.15,2013-02-27 21:51:00,
2013-02-27 16:53:00,37.5,30.9,29.82,NW,305,5.0,7.0,77,0.00,,,0.02,Wunderground v.1.15,2013-02-27 21:53:00,
2013-02-27 16:56:00,37.4,30.8,29.82,West,262,5.0,5.0,77,0.00,,,0.02,Wunderground v.1.15,2013-02-27 21:56:00,
2013-02-27 16:59:00,37.4,31.2,29.82,SSW,212,5.0,5.0,78,0.00,,,0.02,Wunderground v.1.15,2013-02-27 21:59:00,
2013-02-27 17:01:00,37.3,31.4,29.82,SSW,198,5.0,5.0,79,0.00,,,0.02,Wunderground v.1.15,2013-02-27 22:01:00,
2013-02-27 17:02:00,37.3,31.4,29.82,West,273,5.0,5.0,79,0.00,,,0.02,Wunderground v.1.15,2013-02-27 22:02:00,
2013-02-27 17:03:00,37.3,31.7,29.82,WSW,243,5.0,5.0,80,0.00,,,0.02,Wunderground v.1.15,2013-02-27 22:03:00,
2013-02-27 17:06:00,37.3,31.7,29.83,WSW,252,5.0,5.0,80,0.00,,,0.02,Wunderground v.1.15,2013-02-27 22:06:00,
2013-02-27 17:08:00,37.3,31.7,29.82,SSW,194,4.0,5.0,80,0.00,,,0.02,Wunderground v.1.15,2013-02-27 22:08:00,
2013-02-27 17:09:00,37.2,31.6,29.83,SW,220,4.0,5.0,80,0.00,,,0.02,Wunderground v.1.15,2013-02-27 22:09:00,
2013-02-27 17:13:00,37.2,32.2,29.83,SSW,207,4.0,5.0,82,0.00,,,0.02,Wunderground v.1.15,2013-02-27 22:13:00,
2013-02-27 17:15:00,37.2,31.9,29.83,WSW,248,5.0,11.0,81,0.00,,,0.02,Wunderground v.1.15,2013-02-27 22:15:00,
2013-02-27 17:17:00,37.2,31.6,29.83,SW,234,5.0,5.0,80,0.00,,,0.02,Wunderground v.1.15,2013-02-27 22:17:00,
2013-02-27 17:19:00,37.2,31.9,29.83,WSW,244,5.0,5.0,81,0.00,,,0.02,Wunderground v.1.15,2013-02-27 22:19:00,
2013-02-27 17:23:00,37.3,32.3,29.83,WNW,283,4.0,5.0,82,0.00,,,0.02,Wunderground v.1.15,2013-02-27 22:23:00,
2013-02-27 17:27:00,37.4,32.1,29.83,WSW,244,3.0,3.0,81,0.00,,,0.02,Wunderground v.1.15,2013-02-27 22:27:00,
2013-02-27 17:28:00,37.4,32.1,29.83,SSW,193,3.0,4.0,81,0.00,,,0.02,Wunderground v.1.15,2013-02-27 22:28:00,
2013-02-27 17:32:00,37.4,31.8,29.82,South,191,4.0,8.0,80,0.00,,,0.02,Wunderground v.1.15,2013-02-27 22:32:00,
2013-02-27 17:36:00,37.3,32.0,29.83,WSW,249,5.0,8.0,81,0.00,,,0.02,Wunderground v.1.15,2013-02-27 22:36:00,
2013-02-27 17:39:00,37.2,31.9,29.83,WSW,239,5.0,8.0,81,0.00,,,0.02,Wunderground v.1.15,2013-02-27 22:39:00,
2013-02-27 17:41:00,36.9,31.9,29.83,SW,226,5.0,8.0,82,0.00,,,0.02,Wunderground v.1.15,2013-02-27 22:41:00,
2013-02-27 17:44:00,36.5,32.1,29.83,SSW,207,5.0,8.0,84,0.00,,,0.02,Wunderground v.1.15,2013-02-27 22:44:00,
2013-02-27 17:45:00,36.5,32.1,29.83,SSW,211,5.0,8.0,84,0.00,,,0.02,Wunderground v.1.15,2013-02-27 22:45:00,
2013-02-27 17:47:00,36.4,32.3,29.83,WSW,246,5.0,5.0,85,0.00,,,0.02,Wunderground v.1.15,2013-02-27 22:47:00,
2013-02-27 17:50:00,36.2,32.1,29.84,SSW,194,6.0,9.0,85,0.00,,,0.02,Wunderground v.1.15,2013-02-27 22:50:00,
2013-02-27 17:51:00,36.2,32.1,29.84,SSW,212,6.0,9.0,85,0.00,,,0.02,Wunderground v.1.15,2013-02-27 22:51:00,
2013-02-27 17:52:00,36.1,32.3,29.84,SW,219,6.0,9.0,86,0.00,,,0.02,Wunderground v.1.15,2013-02-27 22:52:00,
2013-02-27 17:54:00,36.1,32.3,29.84,SW,236,5.0,9.0,86,0.00,,,0.02,Wunderground v.1.15,2013-02-27 22:54:00,
2013-02-27 17:56:00,36.0,32.2,29.84,West,266,6.0,9.0,86,0.00,,,0.02,Wunderground v.1.15,2013-02-27 22:56:00,
2013-02-27 17:58:00,35.9,32.1,29.84,SW,218,5.0,6.0,86,0.00,,,0.02,Wunderground v.1.15,2013-02-27 22:58:00,
2013-02-27 18:01:00,35.9,32.1,29.84,West,262,5.0,6.0,86,0.00,,,0.02,Wunderground v.1.15,2013-02-27 23:01:00,
2013-02-27 18:03:00,35.8,32.0,29.84,SW,223,5.0,8.0,86,0.00,,,0.02,Wunderground v.1.15,2013-02-27 23:03:00,
2013-02-27 18:06:00,35.7,31.9,29.84,SW,226,5.0,8.0,86,0.00,,,0.02,Wunderground v.1.15,2013-02-27 23:06:00,
2013-02-27 18:07:00,35.7,31.9,29.84,WSW,256,4.0,4.0,86,0.00,,,0.02,Wunderground v.1.15,2013-02-27 23:07:00,
2013-02-27 18:08:00,35.7,31.9,29.84,SW,223,4.0,4.0,86,0.00,,,0.02,Wunderground v.1.15,2013-02-27 23:08:00,
2013-02-27 18:11:00,35.6,31.8,29.84,SW,226,4.0,6.0,86,0.00,,,0.02,Wunderground v.1.15,2013-02-27 23:11:00,
2013-02-27 18:12:00,35.6,31.8,29.84,SW,215,5.0,6.0,86,0.00,,,0.02,Wunderground v.1.15,2013-02-27 23:12:00,
2013-02-27 18:14:00,35.5,32.0,29.84,West,271,4.0,9.0,87,0.00,,,0.02,Wunderground v.1.15,2013-02-27 23:14:00,
2013-02-27 18:15:00,35.5,32.0,29.84,South,184,4.0,9.0,87,0.00,,,0.02,Wunderground v.1.15,2013-02-27 23:15:00,
2013-02-27 18:19:00,35.3,31.8,29.84,SW,216,5.0,11.0,87,0.00,,,0.02,Wunderground v.1.15,2013-02-27 23:19:00,
2013-02-27 18:22:00,35.2,32.0,29.84,West,260,5.0,11.0,88,0.00,,,0.02,Wunderground v.1.15,2013-02-27 23:22:00,
2013-02-27 18:25:00,35.1,31.9,29.84,WNW,297,4.0,11.0,88,0.00,,,0.02,Wunderground v.1.15,2013-02-27 23:25:00,
2013-02-27 18:29:00,35.0,31.8,29.85,SW,227,4.0,6.0,88,0.00,,,0.02,Wunderground v.1.15,2013-02-27 23:29:00,
2013-02-27 18:30:00,35.0,31.8,29.84,SSW,197,4.0,6.0,88,0.00,,,0.02,Wunderground v.1.15,2013-02-27 23:30:00,
2013-02-27 18:31:00,35.0,31.8,29.85,SSW,197,4.0,6.0,88,0.00,,,0.02,Wunderground v.1.15,2013-02-27 23:31:00,
2013-02-27 18:34:00,35.0,31.8,29.85,SSW,211,3.0,6.0,88,0.00,,,0.02,Wunderground v.1.15,2013-02-27 23:34:00,
2013-02-27 18:35:00,34.9,31.7,29.85,SSW,193,6.0,7.0,88,0.00,,,0.02,Wunderground v.1.15,2013-02-27 23:35:00,
2013-02-27 18:37:00,34.9,31.7,29.85,WSW,238,3.0,3.0,88,0.00,,,0.02,Wunderground v.1.15,2013-02-27 23:37:00,
2013-02-27 18:41:00,34.9,31.7,29.85,SW,222,4.0,4.0,88,0.00,,,0.02,Wunderground v.1.15,2013-02-27 23:41:00,
2013-02-27 18:43:00,34.9,31.7,29.85,SSW,208,3.0,7.0,88,0.00,,,0.02,Wunderground v.1.15,2013-02-27 23:43:00,
2013-02-27 18:45:00,34.9,31.7,29.85,SW,227,3.0,7.0,88,0.00,,,0.02,Wunderground v.1.15,2013-02-27 23:45:00,
2013-02-27 18:46:00,34.9,31.7,29.85,SSW,209,3.0,3.0,88,0.00,,,0.02,Wunderground v.1.15,2013-02-27 23:46:00,
2013-02-27 18:49:00,34.9,32.0,29.85,WSW,239,3.0,3.0,89,0.00,,,0.02,Wunderground v.1.15,2013-02-27 23:49:00,
2013-02-27 18:50:00,34.8,31.9,29.85,SW,233,3.0,5.0,89,0.00,,,0.02,Wunderground v.1.15,2013-02-27 23:50:00,
2013-02-27 18:52:00,34.9,32.0,29.85,WSW,239,3.0,5.0,89,0.00,,,0.02,Wunderground v.1.15,2013-02-27 23:52:00,
2013-02-27 18:56:00,35.0,32.1,29.85,SW,234,3.0,6.0,89,0.00,,,0.02,Wunderground v.1.15,2013-02-27 23:56:00,
2013-02-27 18:57:00,35.0,32.1,29.85,SSW,209,3.0,3.0,89,0.00,,,0.02,Wunderground v.1.15,2013-02-27 23:57:00,
2013-02-27 18:59:00,35.0,32.1,29.85,SSW,209,3.0,3.0,89,0.00,,,0.02,Wunderground v.1.15,2013-02-27 23:59:00,
2013-02-27 19:04:00,35.0,32.1,29.85,SSW,205,3.0,6.0,89,0.00,,,0.02,Wunderground v.1.15,2013-02-28 00:04:00,
2013-02-27 19:05:00,35.0,31.8,29.85,SW,217,3.0,6.0,88,0.00,,,0.02,Wunderground v.1.15,2013-02-28 00:05:00,
2013-02-27 19:06:00,35.0,31.8,29.85,SSW,209,3.0,6.0,88,0.00,,,0.02,Wunderground v.1.15,2013-02-28 00:06:00,
2013-02-27 19:10:00,35.0,31.8,29.85,SW,220,4.0,6.0,88,0.00,,,0.02,Wunderground v.1.15,2013-02-28 00:10:00,
2013-02-27 19:11:00,35.0,31.8,29.85,SW,220,4.0,6.0,88,0.00,,,0.02,Wunderground v.1.15,2013-02-28 00:11:00,
2013-02-27 19:16:00,35.0,32.1,29.85,SSW,196,4.0,7.0,89,0.00,,,0.02,Wunderground v.1.15,2013-02-28 00:16:00,
2013-02-27 19:17:00,34.9,32.0,29.85,SW,231,4.0,4.0,89,0.00,,,0.03,Wunderground v.1.15,2013-02-28 00:17:00,
2013-02-27 19:19:00,34.9,32.0,29.85,South,187,4.0,7.0,89,0.00,,,0.03,Wunderground v.1.15,2013-02-28 00:19:00,
2013-02-27 19:20:00,34.9,32.0,29.85,SSW,205,5.0,7.0,89,0.00,,,0.03,Wunderground v.1.15,2013-02-28 00:20:00,
2013-02-27 19:22:00,34.9,32.0,29.85,SSW,207,5.0,7.0,89,0.00,,,0.03,Wunderground v.1.15,2013-02-28 00:22:00,
2013-02-27 19:25:00,34.8,31.9,29.85,SW,224,5.0,7.0,89,0.00,,,0.03,Wunderground v.1.15,2013-02-28 00:25:00,
2013-02-27 19:29:00,34.8,31.9,29.85,SSW,192,5.0,5.0,89,0.00,,,0.03,Wunderground v.1.15,2013-02-28 00:29:00,
2013-02-27 19:31:00,34.7,32.1,29.85,West,265,5.0,6.0,90,0.00,,,0.03,Wunderground v.1.15,2013-02-28 00:31:00,
2013-02-27 19:33:00,34.7,32.1,29.85,SSW,198,5.0,9.0,90,0.00,,,0.03,Wunderground v.1.15,2013-02-28 00:33:00,
2013-02-27 19:38:00,34.4,31.8,29.86,SSW,206,5.0,7.0,90,0.00,,,0.03,Wunderground v.1.15,2013-02-28 00:38:00,
2013-02-27 19:39:00,34.4,31.8,29.86,SW,232,5.0,7.0,90,0.00,,,0.03,Wunderground v.1.15,2013-02-28 00:39:00,
2013-02-27 19:40:00,34.3,31.7,29.86,WSW,247,4.0,8.0,90,0.00,,,0.03,Wunderground v.1.15,2013-02-28 00:40:00,
2013-02-27 19:46:00,34.3,31.9,29.86,SW,235,5.0,8.0,91,0.00,,,0.03,Wunderground v.1.15,2013-02-28 00:46:00,
2013-02-27 19:48:00,34.3,31.9,29.86,SW,236,5.0,5.0,91,0.00,,,0.03,Wunderground v.1.15,2013-02-28 00:48:00,
2013-02-27 19:49:00,34.2,31.8,29.86,SW,236,4.0,5.0,91,0.00,,,0.03,Wunderground v.1.15,2013-02-28 00:49:00,
2013-02-27 19:52:00,34.2,31.8,29.86,SW,220,5.0,7.0,91,0.00,,,0.03,Wunderground v.1.15,2013-02-28 00:52:00,
2013-02-27 19:54:00,34.1,31.7,29.86,SW,217,4.0,7.0,91,0.00,,,0.03,Wunderground v.1.15,2013-02-28 00:54:00,
2013-02-27 19:55:00,34.1,31.7,29.86,SW,233,4.0,7.0,91,0.00,,,0.03,Wunderground v.1.15,2013-02-28 00:55:00,
2013-02-27 19:56:00,34.1,31.7,29.86,SSW,196,4.0,7.0,91,0.00,,,0.03,Wunderground v.1.15,2013-02-28 00:56:00,
2013-02-27 19:59:00,34.1,31.7,29.86,SW,227,4.0,4.0,91,0.00,,,0.03,Wunderground v.1.15,2013-02-28 00:59:00,
2013-02-27 20:00:00,34.1,31.7,29.86,WSW,240,4.0,4.0,91,0.00,,,0.03,Wunderground v.1.15,2013-02-28 01:00:00,
2013-02-27 20:05:00,33.9,31.8,29.86,SW,216,3.0,5.0,92,0.00,,,0.03,Wunderground v.1.15,2013-02-28 01:05:00,
2013-02-27 20:07:00,33.9,31.8,29.86,West,263,3.0,4.0,92,0.00,,,0.03,Wunderground v.1.15,2013-02-28 01:07:00,
2013-02-27 20:10:00,33.9,31.8,29.86,SSW,206,3.0,5.0,92,0.00,,,0.03,Wunderground v.1.15,2013-02-28 01:10:00,
2013-02-27 20:13:00,33.8,31.7,29.86,WSW,242,3.0,5.0,92,0.00,,,0.03,Wunderground v.1.15,2013-02-28 01:13:00,
2013-02-27 20:14:00,33.8,31.7,29.86,WSW,242,3.0,5.0,92,0.00,,,0.03,Wunderground v.1.15,2013-02-28 01:14:00,
2013-02-27 20:16:00,33.9,31.8,29.86,WNW,290,3.0,5.0,92,0.00,,,0.03,Wunderground v.1.15,2013-02-28 01:16:00,
2013-02-27 20:18:00,33.8,31.7,29.86,West,268,3.0,4.0,92,0.00,,,0.03,Wunderground v.1.15,2013-02-28 01:18:00,
2013-02-27 20:22:00,33.7,31.6,29.87,West,277,3.0,5.0,92,0.00,,,0.03,Wunderground v.1.15,2013-02-28 01:22:00,
2013-02-27 20:23:00,33.6,31.5,29.87,West,269,3.0,5.0,92,0.00,,,0.03,Wunderground v.1.15,2013-02-28 01:23:00,
2013-02-27 20:24:00,33.5,31.4,29.87,WNW,302,3.0,5.0,92,0.00,,,0.03,Wunderground v.1.15,2013-02-28 01:24:00,
2013-02-27 20:25:00,33.4,31.3,29.87,WSW,239,3.0,5.0,92,0.00,,,0.03,Wunderground v.1.15,2013-02-28 01:25:00,
2013-02-27 20:27:00,33.3,31.2,29.87,WSW,240,3.0,6.0,92,0.00,,,0.03,Wunderground v.1.15,2013-02-28 01:27:00,
2013-02-27 20:28:00,33.3,31.2,29.87,WSW,254,3.0,6.0,92,0.00,,,0.03,Wunderground v.1.15,2013-02-28 01:28:00,
2013-02-27 20:32:00,33.2,31.1,29.87,WNW,288,4.0,7.0,92,0.00,,,0.03,Wunderground v.1.15,2013-02-28 01:32:00,
2013-02-27 20:33:00,33.2,31.1,29.87,SW,235,4.0,7.0,92,0.00,,,0.03,Wunderground v.1.15,2013-02-28 01:33:00,
2013-02-27 20:37:00,33.1,31.0,29.87,West,273,4.0,4.0,92,0.00,,,0.03,Wunderground v.1.15,2013-02-28 01:37:00,
2013-02-27 20:38:00,33.1,31.0,29.87,West,277,4.0,4.0,92,0.00,,,0.03,Wunderground v.1.15,2013-02-28 01:38:00,
2013-02-27 20:40:00,33.0,30.9,29.87,West,261,4.0,9.0,92,0.00,,,0.03,Wunderground v.1.15,2013-02-28 01:40:00,
2013-02-27 20:42:00,33.0,30.9,29.87,West,275,4.0,9.0,92,0.00,,,0.03,Wunderground v.1.15,2013-02-28 01:42:00,
2013-02-27 20:44:00,33.0,31.2,29.87,West,278,4.0,9.0,93,0.00,,,0.03,Wunderground v.1.15,2013-02-28 01:44:00,
2013-02-27 20:45:00,33.0,31.2,29.87,West,269,4.0,9.0,93,0.00,,,0.03,Wunderground v.1.15,2013-02-28 01:45:00,
2013-02-27 20:50:00,33.0,31.2,29.87,West,266,4.0,6.0,93,0.00,,,0.03,Wunderground v.1.15,2013-02-28 01:50:00,
2013-02-27 20:51:00,33.0,31.2,29.86,WSW,256,4.0,6.0,93,0.00,,,0.03,Wunderground v.1.15,2013-02-28 01:51:00,
2013-02-27 20:56:00,33.0,31.2,29.87,SW,232,3.0,6.0,93,0.00,,,0.03,Wunderground v.1.15,2013-02-28 01:56:00,
2013-02-27 20:57:00,33.0,31.2,29.87,WSW,244,4.0,4.0,93,0.00,,,0.03,Wunderground v.1.15,2013-02-28 01:57:00,
2013-02-27 21:02:00,33.0,31.2,29.87,West,260,3.0,5.0,93,0.00,,,0.03,Wunderground v.1.15,2013-02-28 02:02:00,
2013-02-27 21:03:00,33.0,31.2,29.87,West,260,3.0,5.0,93,0.00,,,0.03,Wunderground v.1.15,2013-02-28 02:03:00,
2013-02-27 21:06:00,33.0,31.2,29.87,West,266,3.0,5.0,93,0.00,,,0.03,Wunderground v.1.15,2013-02-28 02:06:00,
2013-02-27 21:07:00,33.0,31.2,29.87,West,266,3.0,3.0,93,0.00,,,0.03,Wunderground v.1.15,2013-02-28 02:07:00,
2013-02-27 21:08:00,33.0,31.2,29.87,West,281,3.0,3.0,93,0.00,,,0.03,Wunderground v.1.15,2013-02-28 02:08:00,
2013-02-27 21:09:00,33.0,31.2,29.87,West,281,3.0,3.0,93,0.00,,,0.03,Wunderground v.1.15,2013-02-28 02:09:00,
2013-02-27 21:14:00,33.0,31.2,29.87,West,272,2.0,5.0,93,0.00,,,0.03,Wunderground v.1.15,2013-02-28 02:14:00,
2013-02-27 21:15:00,33.0,31.2,29.87,WSW,244,2.0,5.0,93,0.00,,,0.03,Wunderground v.1.15,2013-02-28 02:15:00,
2013-02-27 21:16:00,33.0,31.2,29.87,West,273,2.0,5.0,93,0.00,,,0.03,Wunderground v.1.15,2013-02-28 02:16:00,
2013-02-27 21:19:00,33.0,31.2,29.87,West,269,3.0,5.0,93,0.00,,,0.03,Wunderground v.1.15,2013-02-28 02:19:00,
2013-02-27 21:21:00,33.0,31.2,29.87,SW,227,4.0,6.0,93,0.00,,,0.03,Wunderground v.1.15,2013-02-28 02:21:00,
2013-02-27 21:27:00,33.1,31.3,29.87,West,274,4.0,4.0,93,0.00,,,0.03,Wunderground v.1.15,2013-02-28 02:27:00,
2013-02-27 21:28:00,33.1,31.3,29.87,WSW,238,4.0,5.0,93,0.00,,,0.03,Wunderground v.1.15,2013-02-28 02:28:00,
2013-02-27 21:30:00,33.1,31.3,29.87,West,267,4.0,5.0,93,0.00,,,0.03,Wunderground v.1.15,2013-02-28 02:30:00,
2013-02-27 21:34:00,33.1,31.3,29.87,WSW,252,3.0,5.0,93,0.00,,,0.03,Wunderground v.1.15,2013-02-28 02:34:00,
2013-02-27 21:35:00,33.1,31.3,29.87,West,269,3.0,5.0,93,0.00,,,0.03,Wunderground v.1.15,2013-02-28 02:35:00,
2013-02-27 21:36:00,33.1,31.3,29.87,West,269,3.0,5.0,93,0.00,,,0.03,Wunderground v.1.15,2013-02-28 02:36:00,
2013-02-27 21:37:00,33.1,31.3,29.87,WSW,251,3.0,3.0,93,0.00,,,0.03,Wunderground v.1.15,2013-02-28 02:37:00,
2013-02-27 21:41:00,33.1,31.3,29.87,WNW,288,3.0,5.0,93,0.00,,,0.03,Wunderground v.1.15,2013-02-28 02:41:00,
2013-02-27 21:42:00,33.0,31.2,29.87,West,265,3.0,5.0,93,0.00,,,0.03,Wunderground v.1.15,2013-02-28 02:42:00,
2013-02-27 21:47:00,33.1,31.3,29.87,West,260,3.0,3.0,93,0.00,,,0.03,Wunderground v.1.15,2013-02-28 02:47:00,
2013-02-27 21:48:00,33.1,31.3,29.87,WSW,238,3.0,3.0,93,0.00,,,0.03,Wunderground v.1.15,2013-02-28 02:48:00,
2013-02-27 21:49:00,33.0,31.2,29.87,West,260,3.0,3.0,93,0.00,,,0.03,Wunderground v.1.15,2013-02-28 02:49:00,
2013-02-27 21:51:00,33.1,31.3,29.87,WSW,245,3.0,4.0,93,0.00,,,0.03,Wunderground v.1.15,2013-02-28 02:51:00,
2013-02-27 21:54:00,33.1,31.3,29.87,WSW,254,4.0,4.0,93,0.00,,,0.03,Wunderground v.1.15,2013-02-28 02:54:00,
2013-02-27 21:55:00,33.0,31.2,29.87,WSW,257,3.0,6.0,93,0.00,,,0.03,Wunderground v.1.15,2013-02-28 02:55:00,
2013-02-27 21:58:00,33.0,30.9,29.87,West,281,4.0,4.0,92,0.00,,,0.03,Wunderground v.1.15,2013-02-28 02:58:00,
2013-02-27 21:59:00,33.0,30.9,29.87,SW,220,4.0,7.0,92,0.00,,,0.03,Wunderground v.1.15,2013-02-28 02:59:00,
2013-02-27 22:01:00,33.0,30.9,29.87,West,281,4.0,7.0,92,0.00,,,0.03,Wunderground v.1.15,2013-02-28 03:01:00,
2013-02-27 22:02:00,33.0,30.9,29.87,West,276,5.0,7.0,92,0.00,,,0.03,Wunderground v.1.15,2013-02-28 03:02:00,
2013-02-27 22:03:00,33.0,30.7,29.87,WNW,289,5.0,7.0,91,0.00,,,0.03,Wunderground v.1.15,2013-02-28 03:03:00,
2013-02-27 22:08:00,33.1,30.8,29.87,WNW,284,6.0,6.0,91,0.00,,,0.03,Wunderground v.1.15,2013-02-28 03:08:00,
2013-02-27 22:11:00,33.0,30.4,29.87,WSW,253,6.0,6.0,90,0.00,,,0.03,Wunderground v.1.15,2013-02-28 03:11:00,
2013-02-27 22:13:00,33.0,30.4,29.87,WNW,284,5.0,7.0,90,0.00,,,0.03,Wunderground v.1.15,2013-02-28 03:13:00,
2013-02-27 22:15:00,33.0,30.4,29.87,WNW,282,5.0,7.0,90,0.00,,,0.03,Wunderground v.1.15,2013-02-28 03:15:00,
2013-02-27 22:16:00,32.9,30.3,29.87,WNW,302,5.0,8.0,90,0.00,,,0.03,Wunderground v.1.15,2013-02-28 03:16:00,
2013-02-27 22:20:00,33.1,30.2,29.88,WSW,252,6.0,9.0,89,0.00,,,0.03,Wunderground v.1.15,2013-02-28 03:20:00,
2013-02-27 22:21:00,33.1,30.2,29.88,WSW,250,6.0,9.0,89,0.00,,,0.03,Wunderground v.1.15,2013-02-28 03:21:00,
2013-02-27 22:22:00,33.1,30.2,29.88,West,266,5.0,9.0,89,0.00,,,0.03,Wunderground v.1.15,2013-02-28 03:22:00,
2013-02-27 22:24:00,33.1,30.2,29.88,West,273,5.0,9.0,89,0.00,,,0.03,Wunderground v.1.15,2013-02-28 03:24:00,
2013-02-27 22:26:00,33.1,30.2,29.88,WNW,297,5.0,9.0,89,0.00,,,0.03,Wunderground v.1.15,2013-02-28 03:26:00,
2013-02-27 22:29:00,33.1,30.5,29.88,West,261,4.0,5.0,90,0.00,,,0.03,Wunderground v.1.15,2013-02-28 03:29:00,
2013-02-27 22:31:00,33.0,30.4,29.88,WSW,249,4.0,5.0,90,0.00,,,0.03,Wunderground v.1.15,2013-02-28 03:31:00,
2013-02-27 22:34:00,33.0,30.4,29.87,SW,231,4.0,5.0,90,0.00,,,0.03,Wunderground v.1.15,2013-02-28 03:34:00,
2013-02-27 22:37:00,33.1,30.5,29.87,WNW,296,4.0,4.0,90,0.00,,,0.03,Wunderground v.1.15,2013-02-28 03:37:00,
2013-02-27 22:38:00,33.1,30.5,29.88,West,270,4.0,4.0,90,0.00,,,0.03,Wunderground v.1.15,2013-02-28 03:38:00,
2013-02-27 22:39:00,33.1,30.5,29.88,West,263,4.0,4.0,90,0.00,,,0.03,Wunderground v.1.15,2013-02-28 03:39:00,
2013-02-27 22:41:00,33.1,30.5,29.88,SW,225,4.0,5.0,90,0.00,,,0.03,Wunderground v.1.15,2013-02-28 03:41:00,
2013-02-27 22:43:00,33.1,30.5,29.88,WSW,253,4.0,5.0,90,0.00,,,0.03,Wunderground v.1.15,2013-02-28 03:43:00,
2013-02-27 22:44:00,33.0,30.4,29.88,WSW,252,4.0,5.0,90,0.00,,,0.03,Wunderground v.1.15,2013-02-28 03:44:00,
2013-02-27 22:45:00,33.0,30.4,29.88,West,263,4.0,5.0,90,0.00,,,0.03,Wunderground v.1.15,2013-02-28 03:45:00,
2013-02-27 22:49:00,33.1,30.5,29.88,SW,236,4.0,7.0,90,0.00,,,0.03,Wunderground v.1.15,2013-02-28 03:49:00,
2013-02-27 22:52:00,33.2,30.6,29.88,West,274,4.0,7.0,90,0.00,,,0.03,Wunderground v.1.15,2013-02-28 03:52:00,
2013-02-27 22:55:00,33.2,30.3,29.88,West,269,5.0,7.0,89,0.00,,,0.03,Wunderground v.1.15,2013-02-28 03:55:00,
2013-02-27 22:56:00,33.2,30.3,29.88,WSW,252,5.0,7.0,89,0.00,,,0.03,Wunderground v.1.15,2013-02-28 03:56:00,
2013-02-27 23:00:00,33.2,30.3,29.88,West,267,5.0,5.0,89,0.00,,,0.03,Wunderground v.1.15,2013-02-28 04:00:00,
2013-02-27 23:01:00,33.2,30.3,29.88,WSW,248,5.0,5.0,89,0.00,,,0.03,Wunderground v.1.15,2013-02-28 04:01:00,
2013-02-27 23:03:00,33.2,30.3,29.88,WNW,287,4.0,5.0,89,0.00,,,0.03,Wunderground v.1.15,2013-02-28 04:03:00,
2013-02-27 23:06:00,33.2,30.3,29.88,WSW,256,4.0,5.0,89,0.00,,,0.03,Wunderground v.1.15,2013-02-28 04:06:00,
2013-02-27 23:07:00,33.2,30.3,29.88,WSW,257,4.0,4.0,89,0.00,,,0.03,Wunderground v.1.15,2013-02-28 04:07:00,
2013-02-27 23:09:00,33.2,30.3,29.88,SW,221,4.0,4.0,89,0.00,,,0.03,Wunderground v.1.15,2013-02-28 04:09:00,
2013-02-27 23:12:00,33.2,30.6,29.88,South,190,4.0,4.0,90,0.00,,,0.03,Wunderground v.1.15,2013-02-28 04:12:00,
2013-02-27 23:15:00,33.2,30.6,29.88,WSW,256,4.0,5.0,90,0.00,,,0.03,Wunderground v.1.15,2013-02-28 04:15:00,
2013-02-27 23:17:00,33.2,30.6,29.88,West,276,4.0,4.0,90,0.00,,,0.03,Wunderground v.1.15,2013-02-28 04:17:00,
2013-02-27 23:20:00,33.2,30.6,29.88,WSW,252,4.0,6.0,90,0.00,,,0.03,Wunderground v.1.15,2013-02-28 04:20:00,
2013-02-27 23:21:00,33.2,30.6,29.88,WSW,242,4.0,6.0,90,0.00,,,0.03,Wunderground v.1.15,2013-02-28 04:21:00,
2013-02-27 23:23:00,33.2,30.3,29.88,WNW,291,4.0,6.0,89,0.00,,,0.03,Wunderground v.1.15,2013-02-28 04:23:00,
2013-02-27 23:26:00,33.3,30.4,29.88,West,263,4.0,6.0,89,0.00,,,0.03,Wunderground v.1.15,2013-02-28 04:26:00,
2013-02-27 23:27:00,33.2,30.3,29.88,SW,234,4.0,4.0,89,0.00,,,0.03,Wunderground v.1.15,2013-02-28 04:27:00,
2013-02-27 23:29:00,33.2,30.3,29.87,WSW,237,4.0,4.0,89,0.00,,,0.03,Wunderground v.1.15,2013-02-28 04:29:00,
2013-02-27 23:31:00,33.2,30.3,29.88,West,274,4.0,4.0,89,0.00,,,0.03,Wunderground v.1.15,2013-02-28 04:31:00,
2013-02-27 23:34:00,33.2,30.3,29.88,West,263,4.0,4.0,89,0.00,,,0.03,Wunderground v.1.15,2013-02-28 04:34:00,
2013-02-27 23:35:00,33.2,30.3,29.88,West,275,4.0,7.0,89,0.00,,,0.03,Wunderground v.1.15,2013-02-28 04:35:00,
2013-02-27 23:39:00,33.2,30.3,29.88,WSW,246,4.0,4.0,89,0.00,,,0.03,Wunderground v.1.15,2013-02-28 04:39:00,
2013-02-27 23:40:00,33.2,30.3,29.87,WSW,256,4.0,6.0,89,0.00,,,0.03,Wunderground v.1.15,2013-02-28 04:40:00,
2013-02-27 23:42:00,33.2,30.3,29.87,WSW,237,4.0,6.0,89,0.00,,,0.03,Wunderground v.1.15,2013-02-28 04:42:00,
2013-02-27 23:44:00,33.2,30.3,29.87,NW,305,4.0,6.0,89,0.00,,,0.03,Wunderground v.1.15,2013-02-28 04:44:00,
2013-02-27 23:47:00,33.2,30.3,29.87,WSW,254,4.0,4.0,89,0.00,,,0.03,Wunderground v.1.15,2013-02-28 04:47:00,
2013-02-27 23:50:00,33.2,30.3,29.87,WSW,238,4.0,5.0,89,0.00,,,0.03,Wunderground v.1.15,2013-02-28 04:50:00,
2013-02-27 23:51:00,33.2,30.3,29.87,WSW,252,4.0,5.0,89,0.00,,,0.03,Wunderground v.1.15,2013-02-28 04:51:00,
2013-02-27 23:54:00,33.2,30.3,29.87,WSW,247,5.0,5.0,89,0.00,,,0.03,Wunderground v.1.15,2013-02-28 04:54:00,
2013-02-27 23:55:00,33.2,30.3,29.87,West,261,5.0,5.0,89,0.00,,,0.03,Wunderground v.1.15,2013-02-28 04:55:00,
2013-02-27 23:57:00,33.2,30.3,29.87,West,264,5.0,5.0,89,0.00,,,0.03,Wunderground v.1.15,2013-02-28 04:57:00,
2013-02-27 23:59:00,33.2,30.3,29.87,WNW,287,5.0,5.0,89,0.00,,,0.03,Wunderground v.1.15,2013-02-28 04:59:00,